Time,TemperatureF,DewpointF,PressureIn,WindDirection,WindDirectionDegrees,WindSpeedMPH,WindSpeedGustMPH,Humidity,HourlyPrecipIn,Conditions,Clouds,dailyrainin,SoftwareType,DateUTC
2013-02-06 00:00:00,33.6,13.5,29.77,NNE,25,0.0,0.0,43,0.00,,---,0.00,VWS V14.01,2013-02-06 05:00:00,
2013-02-06 00:05:00,33.6,14.1,29.77,NNE,25,0.0,0.0,44,0.00,,---,0.00,VWS V14.01,2013-02-06 05:05:00,
2013-02-06 00:10:00,33.4,13.9,29.77,NNE,25,0.0,0.0,44,0.00,,---,0.00,VWS V14.01,2013-02-06 05:10:00,
2013-02-06 00:15:00,33.4,13.9,29.77,NNE,25,0.0,0.0,44,0.00,,---,0.00,VWS V14.01,2013-02-06 05:15:00,
2013-02-06 00:16:00,33.4,13.9,29.77,NNE,25,0.0,0.0,44,0.00,,---,0.00,VWS V14.01,2013-02-06 05:16:00,
2013-02-06 00:20:00,33.1,13.6,29.77,NNE,25,0.0,0.0,44,0.00,,---,0.00,VWS V14.01,2013-02-06 05:20:00,
2013-02-06 00:21:00,32.9,13.9,29.77,NNE,25,0.0,0.0,45,0.00,,---,0.00,VWS V14.01,2013-02-06 05:21:00,
2013-02-06 00:25:00,32.7,13.7,29.77,NNE,25,0.0,0.0,45,0.00,,---,0.00,VWS V14.01,2013-02-06 05:25:00,
2013-02-06 00:26:00,32.7,14.2,29.77,NNE,25,0.0,0.0,46,0.00,,---,0.00,VWS V14.01,2013-02-06 05:26:00,
2013-02-06 00:30:00,32.7,14.2,29.77,NNE,25,0.0,0.0,46,0.00,,---,0.00,VWS V14.01,2013-02-06 05:30:00,
2013-02-06 00:31:00,32.7,14.2,29.77,NNE,25,0.0,0.0,46,0.00,,---,0.00,VWS V14.01,2013-02-06 05:31:00,
2013-02-06 00:35:00,32.7,14.7,29.77,NNE,25,0.0,0.0,47,0.00,,---,0.00,VWS V14.01,2013-02-06 05:35:00,
2013-02-06 00:36:00,32.7,14.2,29.77,NNE,25,0.0,0.0,46,0.00,,---,0.00,VWS V14.01,2013-02-06 05:36:00,
2013-02-06 00:40:00,32.7,14.2,29.77,NNE,25,0.0,0.0,46,0.00,,---,0.00,VWS V14.01,2013-02-06 05:40:00,
2013-02-06 00:41:00,32.7,14.2,29.77,NNE,25,0.0,0.0,46,0.00,,---,0.00,VWS V14.01,2013-02-06 05:41:00,
2013-02-06 00:45:00,32.9,14.4,29.77,NNE,25,0.0,0.0,46,0.00,,---,0.00,VWS V14.01,2013-02-06 05:45:00,
2013-02-06 00:46:00,32.9,14.4,29.77,NNE,25,0.0,0.0,46,0.00,,---,0.00,VWS V14.01,2013-02-06 05:46:00,
2013-02-06 00:47:00,32.9,14.4,29.77,NNE,25,0.0,0.0,46,0.00,,---,0.00,VWS V14.01,2013-02-06 05:47:00,
2013-02-06 00:50:00,33.1,15.1,29.77,NNE,25,0.0,0.0,47,0.00,,---,0.00,VWS V14.01,2013-02-06 05:50:00,
2013-02-06 00:51:00,33.1,15.1,29.77,NNE,25,0.0,0.0,47,0.00,,---,0.00,VWS V14.01,2013-02-06 05:51:00,
2013-02-06 00:52:00,33.1,15.1,29.77,NNE,25,0.0,0.0,47,0.00,,---,0.00,VWS V14.01,2013-02-06 05:52:00,
2013-02-06 00:55:00,33.1,15.5,29.77,NNE,25,0.0,0.0,48,0.00,,---,0.00,VWS V14.01,2013-02-06 05:55:00,
2013-02-06 00:56:00,32.9,15.9,29.77,NNE,25,0.0,0.0,49,0.00,,---,0.00,VWS V14.01,2013-02-06 05:56:00,
2013-02-06 00:57:00,32.9,16.3,29.77,NNE,25,0.0,0.0,50,0.00,,---,0.00,VWS V14.01,2013-02-06 05:57:00,
2013-02-06 01:00:00,32.7,16.6,29.77,NNE,25,2.7,3.6,51,0.00,,---,0.00,VWS V14.01,2013-02-06 06:00:00,
2013-02-06 01:01:00,32.7,16.6,29.77,NNE,25,3.6,3.6,51,0.00,,---,0.00,VWS V14.01,2013-02-06 06:01:00,
2013-02-06 01:02:00,32.7,16.6,29.77,NNE,25,2.7,3.1,51,0.00,,---,0.00,VWS V14.01,2013-02-06 06:02:00,
2013-02-06 01:06:00,32.5,16.0,29.77,NNE,25,0.0,2.2,50,0.00,,---,0.00,VWS V14.01,2013-02-06 06:06:00,
2013-02-06 01:07:00,32.5,16.0,29.77,NNE,25,0.0,2.2,50,0.00,,---,0.00,VWS V14.01,2013-02-06 06:07:00,
2013-02-06 01:11:00,32.5,16.0,29.77,NNE,25,0.0,0.0,50,0.00,,---,0.00,VWS V14.01,2013-02-06 06:11:00,
2013-02-06 01:12:00,32.5,16.0,29.77,NNE,25,0.0,0.0,50,0.00,,---,0.00,VWS V14.01,2013-02-06 06:12:00,
2013-02-06 01:16:00,32.5,16.0,29.77,NNE,25,0.0,0.0,50,0.00,,---,0.00,VWS V14.01,2013-02-06 06:16:00,
2013-02-06 01:17:00,32.5,16.0,29.77,NNE,25,0.0,0.0,50,0.00,,---,0.00,VWS V14.01,2013-02-06 06:17:00,
2013-02-06 01:21:00,32.4,15.4,29.77,NNE,25,0.0,0.0,49,0.00,,---,0.00,VWS V14.01,2013-02-06 06:21:00,
2013-02-06 01:22:00,32.4,15.4,29.77,NNE,25,0.0,0.0,49,0.00,,---,0.00,VWS V14.01,2013-02-06 06:22:00,
2013-02-06 01:26:00,32.2,15.2,29.77,NNE,25,0.0,0.0,49,0.00,,---,0.00,VWS V14.01,2013-02-06 06:26:00,
2013-02-06 01:27:00,32.2,15.2,29.77,NNE,25,0.0,0.0,49,0.00,,---,0.00,VWS V14.01,2013-02-06 06:27:00,
2013-02-06 01:31:00,31.8,14.4,29.77,NNE,25,0.0,0.0,48,0.00,,---,0.00,VWS V14.01,2013-02-06 06:31:00,
2013-02-06 01:32:00,31.8,14.4,29.77,NNE,25,0.0,0.0,48,0.00,,---,0.00,VWS V14.01,2013-02-06 06:32:00,
2013-02-06 01:36:00,31.6,13.7,29.77,NNE,25,0.0,0.0,47,0.00,,---,0.00,VWS V14.01,2013-02-06 06:36:00,
2013-02-06 01:37:00,31.5,13.6,29.77,NNE,25,0.0,0.0,47,0.00,,---,0.00,VWS V14.01,2013-02-06 06:37:00,
2013-02-06 01:41:00,31.5,14.1,29.77,NNE,25,0.0,0.0,48,0.00,,---,0.00,VWS V14.01,2013-02-06 06:41:00,
2013-02-06 01:42:00,31.5,14.1,29.77,NNE,25,0.0,0.0,48,0.00,,---,0.00,VWS V14.01,2013-02-06 06:42:00,
2013-02-06 01:46:00,31.3,13.9,29.77,NNE,25,0.0,0.0,48,0.00,,---,0.00,VWS V14.01,2013-02-06 06:46:00,
2013-02-06 01:47:00,31.3,13.9,29.77,NNE,25,0.0,0.0,48,0.00,,---,0.00,VWS V14.01,2013-02-06 06:47:00,
2013-02-06 01:52:00,31.1,13.7,29.80,NNE,25,0.0,0.0,48,0.00,,---,0.00,VWS V14.01,2013-02-06 06:52:00,
2013-02-06 01:53:00,31.1,13.7,29.80,NNE,25,0.0,0.0,48,0.00,,---,0.00,VWS V14.01,2013-02-06 06:53:00,
2013-02-06 01:57:00,30.9,12.6,29.80,NNE,25,0.0,0.0,46,0.00,,---,0.00,VWS V14.01,2013-02-06 06:57:00,
2013-02-06 01:58:00,30.7,12.4,29.80,NNE,25,0.0,0.0,46,0.00,,---,0.00,VWS V14.01,2013-02-06 06:58:00,
2013-02-06 02:02:00,30.6,12.7,29.80,NNE,25,0.0,0.0,47,0.00,,---,0.00,VWS V14.01,2013-02-06 07:02:00,
2013-02-06 02:03:00,30.6,12.7,29.80,NNE,25,0.0,0.0,47,0.00,,---,0.00,VWS V14.01,2013-02-06 07:03:00,
2013-02-06 02:07:00,30.6,13.2,29.80,NNE,25,0.0,0.0,48,0.00,,---,0.00,VWS V14.01,2013-02-06 07:07:00,
2013-02-06 02:08:00,30.6,13.2,29.80,NNE,25,0.0,0.0,48,0.00,,---,0.00,VWS V14.01,2013-02-06 07:08:00,
2013-02-06 02:12:00,30.4,13.1,29.80,NNE,25,0.0,0.0,48,0.00,,---,0.00,VWS V14.01,2013-02-06 07:12:00,
2013-02-06 02:13:00,30.4,13.1,29.80,NNE,25,0.0,0.0,48,0.00,,---,0.00,VWS V14.01,2013-02-06 07:13:00,
2013-02-06 02:17:00,30.2,12.9,29.80,NNE,25,0.0,0.0,48,0.00,,---,0.00,VWS V14.01,2013-02-06 07:17:00,
2013-02-06 02:18:00,30.2,12.9,29.80,NNE,25,0.0,0.0,48,0.00,,---,0.00,VWS V14.01,2013-02-06 07:18:00,
2013-02-06 02:22:00,30.2,12.9,29.80,NNE,25,0.0,0.0,48,0.00,,---,0.00,VWS V14.01,2013-02-06 07:22:00,
2013-02-06 02:23:00,30.0,12.2,29.80,NNE,25,0.0,0.0,47,0.00,,---,0.00,VWS V14.01,2013-02-06 07:23:00,
2013-02-06 02:27:00,29.7,12.4,29.80,NNE,25,0.0,0.0,48,0.00,,---,0.00,VWS V14.01,2013-02-06 07:27:00,
2013-02-06 02:28:00,29.7,12.4,29.80,NNE,25,0.0,0.0,48,0.00,,---,0.00,VWS V14.01,2013-02-06 07:28:00,
2013-02-06 02:32:00,29.7,12.4,29.80,NNE,25,0.0,0.0,48,0.00,,---,0.00,VWS V14.01,2013-02-06 07:32:00,
2013-02-06 02:33:00,29.7,12.4,29.80,NNE,25,0.0,0.0,48,0.00,,---,0.00,VWS V14.01,2013-02-06 07:33:00,
2013-02-06 02:37:00,29.7,12.9,29.80,NNE,25,0.0,0.0,49,0.00,,---,0.00,VWS V14.01,2013-02-06 07:37:00,
2013-02-06 02:39:00,29.7,12.9,29.80,NNE,25,0.0,0.0,49,0.00,,---,0.00,VWS V14.01,2013-02-06 07:39:00,
2013-02-06 02:42:00,29.7,12.4,29.80,NNE,25,0.0,0.0,48,0.00,,---,0.00,VWS V14.01,2013-02-06 07:42:00,
2013-02-06 02:44:00,29.7,12.4,29.80,NNE,25,0.0,0.0,48,0.00,,---,0.00,VWS V14.01,2013-02-06 07:44:00,
2013-02-06 02:47:00,29.7,12.4,29.80,NNE,25,0.0,0.0,48,0.00,,---,0.00,VWS V14.01,2013-02-06 07:47:00,
2013-02-06 02:48:00,29.7,12.4,29.80,NNE,25,0.0,0.0,48,0.00,,---,0.00,VWS V14.01,2013-02-06 07:48:00,
2013-02-06 02:49:00,29.7,12.4,29.80,NNE,25,0.0,0.0,48,0.00,,---,0.00,VWS V14.01,2013-02-06 07:49:00,
2013-02-06 02:53:00,29.5,12.2,29.80,NNE,25,0.0,0.0,48,0.00,,---,0.00,VWS V14.01,2013-02-06 07:53:00,
2013-02-06 02:54:00,29.5,12.2,29.80,NNE,25,0.0,0.0,48,0.00,,---,0.00,VWS V14.01,2013-02-06 07:54:00,
2013-02-06 02:58:00,29.5,12.2,29.80,NNE,25,0.0,0.0,48,0.00,,---,0.00,VWS V14.01,2013-02-06 07:58:00,
2013-02-06 02:59:00,29.3,11.6,29.80,NNE,25,0.0,0.0,47,0.00,,---,0.00,VWS V14.01,2013-02-06 07:59:00,
2013-02-06 03:03:00,29.1,11.4,29.80,NNE,25,0.0,0.0,47,0.00,,---,0.00,VWS V14.01,2013-02-06 08:03:00,
2013-02-06 03:04:00,29.1,11.9,29.80,NNE,25,0.0,0.0,48,0.00,,---,0.00,VWS V14.01,2013-02-06 08:04:00,
2013-02-06 03:08:00,29.3,12.1,29.80,NNE,25,0.0,0.0,48,0.00,,---,0.00,VWS V14.01,2013-02-06 08:08:00,
2013-02-06 03:09:00,29.3,12.1,29.80,NNE,25,0.0,0.0,48,0.00,,---,0.00,VWS V14.01,2013-02-06 08:09:00,
2013-02-06 03:10:00,29.3,12.5,29.80,NNE,25,0.0,0.0,49,0.00,,---,0.00,VWS V14.01,2013-02-06 08:10:00,
2013-02-06 03:13:00,29.3,12.1,29.80,NNE,25,0.0,0.0,48,0.00,,---,0.00,VWS V14.01,2013-02-06 08:13:00,
2013-02-06 03:14:00,29.3,12.1,29.80,NNE,25,0.0,0.0,48,0.00,,---,0.00,VWS V14.01,2013-02-06 08:14:00,
2013-02-06 03:15:00,29.1,11.9,29.80,NNE,25,0.0,0.0,48,0.00,,---,0.00,VWS V14.01,2013-02-06 08:15:00,
2013-02-06 03:18:00,29.1,11.9,29.80,NNE,25,0.0,0.0,48,0.00,,---,0.00,VWS V14.01,2013-02-06 08:18:00,
2013-02-06 03:19:00,29.1,11.9,29.80,NNE,25,0.0,0.0,48,0.00,,---,0.00,VWS V14.01,2013-02-06 08:19:00,
2013-02-06 03:20:00,29.1,11.9,29.80,NNE,25,0.0,0.0,48,0.00,,---,0.00,VWS V14.01,2013-02-06 08:20:00,
2013-02-06 03:23:00,28.9,11.7,29.80,NNE,25,0.0,0.0,48,0.00,,---,0.00,VWS V14.01,2013-02-06 08:23:00,
2013-02-06 03:24:00,28.9,11.2,29.80,NNE,25,0.0,0.0,47,0.00,,---,0.00,VWS V14.01,2013-02-06 08:24:00,
2013-02-06 03:25:00,28.8,11.1,29.80,NNE,25,0.0,0.0,47,0.00,,---,0.00,VWS V14.01,2013-02-06 08:25:00,
2013-02-06 03:28:00,28.8,11.1,29.80,NNE,25,0.0,0.0,47,0.00,,---,0.00,VWS V14.01,2013-02-06 08:28:00,
2013-02-06 03:29:00,28.8,11.1,29.80,NNE,25,0.0,0.0,47,0.00,,---,0.00,VWS V14.01,2013-02-06 08:29:00,
2013-02-06 03:30:00,28.8,11.1,29.80,NNE,25,0.0,0.0,47,0.00,,---,0.00,VWS V14.01,2013-02-06 08:30:00,
2013-02-06 03:33:00,28.8,11.6,29.80,NNE,25,0.0,0.0,48,0.00,,---,0.00,VWS V14.01,2013-02-06 08:33:00,
2013-02-06 03:34:00,28.8,11.6,29.80,NNE,25,0.0,0.0,48,0.00,,---,0.00,VWS V14.01,2013-02-06 08:34:00,
2013-02-06 03:35:00,28.6,11.4,29.80,NNE,25,0.0,0.0,48,0.00,,---,0.00,VWS V14.01,2013-02-06 08:35:00,
2013-02-06 03:38:00,28.6,11.4,29.80,NNE,25,0.0,0.0,48,0.00,,---,0.00,VWS V14.01,2013-02-06 08:38:00,
2013-02-06 03:39:00,28.6,11.4,29.80,NNE,25,0.0,0.0,48,0.00,,---,0.00,VWS V14.01,2013-02-06 08:39:00,
2013-02-06 03:40:00,28.6,11.4,29.80,NNE,25,0.0,0.0,48,0.00,,---,0.00,VWS V14.01,2013-02-06 08:40:00,
2013-02-06 03:43:00,28.6,10.9,29.80,NNE,25,0.0,0.0,47,0.00,,---,0.00,VWS V14.01,2013-02-06 08:43:00,
2013-02-06 03:44:00,28.4,11.2,29.80,NNE,25,0.0,0.0,48,0.00,,---,0.00,VWS V14.01,2013-02-06 08:44:00,
2013-02-06 03:45:00,28.4,11.2,29.80,NNE,25,0.0,0.0,48,0.00,,---,0.00,VWS V14.01,2013-02-06 08:45:00,
2013-02-06 03:48:00,28.4,11.2,29.80,NNE,25,0.0,0.0,48,0.00,,---,0.00,VWS V14.01,2013-02-06 08:48:00,
2013-02-06 03:49:00,28.4,11.2,29.80,NNE,25,0.0,0.0,48,0.00,,---,0.00,VWS V14.01,2013-02-06 08:49:00,
2013-02-06 03:50:00,28.4,11.2,29.80,NNE,25,0.0,0.0,48,0.00,,---,0.00,VWS V14.01,2013-02-06 08:50:00,
2013-02-06 03:53:00,28.2,11.1,29.80,NNE,25,0.0,0.0,48,0.00,,---,0.00,VWS V14.01,2013-02-06 08:53:00,
2013-02-06 03:55:00,28.0,10.4,29.80,NNE,25,0.0,0.0,47,0.00,,---,0.00,VWS V14.01,2013-02-06 08:55:00,
2013-02-06 03:58:00,27.9,9.8,29.80,NNE,25,0.0,0.0,46,0.00,,---,0.00,VWS V14.01,2013-02-06 08:58:00,
2013-02-06 04:00:00,27.7,10.1,29.80,NNE,25,0.0,0.0,47,0.00,,---,0.00,VWS V14.01,2013-02-06 09:00:00,
2013-02-06 04:04:00,27.7,10.1,29.80,NNE,25,0.0,0.0,47,0.00,,---,0.00,VWS V14.01,2013-02-06 09:04:00,
2013-02-06 04:05:00,27.7,10.1,29.80,NNE,25,0.0,0.0,47,0.00,,---,0.00,VWS V14.01,2013-02-06 09:05:00,
2013-02-06 04:06:00,27.7,10.1,29.80,NNE,25,0.0,0.0,47,0.00,,---,0.00,VWS V14.01,2013-02-06 09:06:00,
2013-02-06 04:09:00,27.7,10.1,29.80,NNE,25,0.0,0.0,47,0.00,,---,0.00,VWS V14.01,2013-02-06 09:09:00,
2013-02-06 04:10:00,27.5,9.9,29.80,NNE,25,0.0,0.0,47,0.00,,---,0.00,VWS V14.01,2013-02-06 09:10:00,
2013-02-06 04:11:00,27.5,9.9,29.80,NNE,25,0.0,0.0,47,0.00,,---,0.00,VWS V14.01,2013-02-06 09:11:00,
2013-02-06 04:14:00,27.5,9.9,29.80,NNE,25,0.0,0.0,47,0.00,,---,0.00,VWS V14.01,2013-02-06 09:14:00,
2013-02-06 04:15:00,27.3,9.8,29.80,NNE,25,0.0,0.0,47,0.00,,---,0.00,VWS V14.01,2013-02-06 09:15:00,
2013-02-06 04:16:00,27.3,9.8,29.80,NNE,25,0.0,0.0,47,0.00,,---,0.00,VWS V14.01,2013-02-06 09:16:00,
2013-02-06 04:19:00,27.3,9.8,29.80,NNE,25,0.0,0.0,47,0.00,,---,0.00,VWS V14.01,2013-02-06 09:19:00,
2013-02-06 04:20:00,27.3,9.8,29.83,NNE,25,0.0,0.0,47,0.00,,---,0.00,VWS V14.01,2013-02-06 09:20:00,
2013-02-06 04:21:00,27.3,9.8,29.83,NNE,25,0.0,0.0,47,0.00,,---,0.00,VWS V14.01,2013-02-06 09:21:00,
2013-02-06 04:24:00,27.3,9.8,29.83,NNE,25,0.0,0.0,47,0.00,,---,0.00,VWS V14.01,2013-02-06 09:24:00,
2013-02-06 04:26:00,27.3,9.8,29.83,NNE,25,0.0,0.0,47,0.00,,---,0.00,VWS V14.01,2013-02-06 09:26:00,
2013-02-06 04:29:00,27.0,9.4,29.83,NNE,25,0.0,0.0,47,0.00,,---,0.00,VWS V14.01,2013-02-06 09:29:00,
2013-02-06 04:31:00,27.0,9.4,29.83,NNE,25,0.0,0.0,47,0.00,,---,0.00,VWS V14.01,2013-02-06 09:31:00,
2013-02-06 04:34:00,27.0,9.4,29.83,NNE,25,0.0,0.0,47,0.00,,---,0.00,VWS V14.01,2013-02-06 09:34:00,
2013-02-06 04:36:00,27.0,9.4,29.83,NNE,25,0.0,0.0,47,0.00,,---,0.00,VWS V14.01,2013-02-06 09:36:00,
2013-02-06 04:39:00,27.0,9.4,29.83,NNE,25,0.0,0.0,47,0.00,,---,0.00,VWS V14.01,2013-02-06 09:39:00,
2013-02-06 04:41:00,27.0,9.4,29.83,NNE,25,0.0,0.0,47,0.00,,---,0.00,VWS V14.01,2013-02-06 09:41:00,
2013-02-06 04:45:00,27.0,9.4,29.83,NNE,25,0.0,0.0,47,0.00,,---,0.00,VWS V14.01,2013-02-06 09:45:00,
2013-02-06 04:46:00,27.0,9.4,29.83,NNE,25,0.0,0.0,47,0.00,,---,0.00,VWS V14.01,2013-02-06 09:46:00,
2013-02-06 04:50:00,26.6,9.1,29.83,NNE,25,0.0,0.0,47,0.00,,---,0.00,VWS V14.01,2013-02-06 09:50:00,
2013-02-06 04:51:00,26.6,9.1,29.83,NNE,25,0.0,0.0,47,0.00,,---,0.00,VWS V14.01,2013-02-06 09:51:00,
2013-02-06 04:52:00,26.6,9.1,29.83,NNE,25,0.0,0.0,47,0.00,,---,0.00,VWS V14.01,2013-02-06 09:52:00,
2013-02-06 04:55:00,26.4,8.9,29.83,NNE,25,0.0,0.0,47,0.00,,---,0.00,VWS V14.01,2013-02-06 09:55:00,
2013-02-06 04:56:00,26.4,8.9,29.83,NNE,25,0.0,0.0,47,0.00,,---,0.00,VWS V14.01,2013-02-06 09:56:00,
2013-02-06 04:57:00,26.4,8.9,29.83,NNE,25,0.0,0.0,47,0.00,,---,0.00,VWS V14.01,2013-02-06 09:57:00,
2013-02-06 05:00:00,26.6,9.6,29.83,NNE,25,0.0,0.0,48,0.00,,---,0.00,VWS V14.01,2013-02-06 10:00:00,
2013-02-06 05:01:00,26.6,9.6,29.83,NNE,25,0.0,0.0,48,0.00,,---,0.00,VWS V14.01,2013-02-06 10:01:00,
2013-02-06 05:02:00,26.6,9.6,29.83,NNE,25,0.0,0.0,48,0.00,,---,0.00,VWS V14.01,2013-02-06 10:02:00,
2013-02-06 05:06:00,26.4,8.9,29.85,NNE,25,0.0,0.0,47,0.00,,---,0.00,VWS V14.01,2013-02-06 10:06:00,
2013-02-06 05:07:00,26.2,8.8,29.85,NNE,25,0.0,0.0,47,0.00,,---,0.00,VWS V14.01,2013-02-06 10:07:00,
2013-02-06 05:11:00,26.1,8.6,29.85,NNE,25,0.0,0.0,47,0.00,,---,0.00,VWS V14.01,2013-02-06 10:11:00,
2013-02-06 05:12:00,26.1,8.6,29.85,NNE,25,0.0,0.0,47,0.00,,---,0.00,VWS V14.01,2013-02-06 10:12:00,
2013-02-06 05:16:00,26.2,9.2,29.85,NNE,25,0.0,0.0,48,0.00,,---,0.00,VWS V14.01,2013-02-06 10:16:00,
2013-02-06 05:17:00,26.2,9.2,29.85,NNE,25,0.0,0.0,48,0.00,,---,0.00,VWS V14.01,2013-02-06 10:17:00,
2013-02-06 05:21:00,26.4,9.4,29.85,NNE,25,0.0,0.0,48,0.00,,---,0.00,VWS V14.01,2013-02-06 10:21:00,
2013-02-06 05:22:00,26.4,9.4,29.85,NNE,25,0.0,0.0,48,0.00,,---,0.00,VWS V14.01,2013-02-06 10:22:00,
2013-02-06 05:26:00,26.4,9.4,29.85,NNE,25,0.0,0.0,48,0.00,,---,0.00,VWS V14.01,2013-02-06 10:26:00,
2013-02-06 05:27:00,26.4,9.4,29.85,NNE,25,0.0,0.0,48,0.00,,---,0.00,VWS V14.01,2013-02-06 10:27:00,
2013-02-06 05:31:00,26.2,8.8,29.85,NNE,25,0.0,0.0,47,0.00,,---,0.00,VWS V14.01,2013-02-06 10:31:00,
2013-02-06 05:32:00,26.2,8.8,29.85,NNE,25,0.0,0.0,47,0.00,,---,0.00,VWS V14.01,2013-02-06 10:32:00,
2013-02-06 05:36:00,26.1,8.6,29.85,NNE,25,0.0,0.0,47,0.00,,---,0.00,VWS V14.01,2013-02-06 10:36:00,
2013-02-06 05:37:00,26.1,8.6,29.85,NNE,25,0.0,0.0,47,0.00,,---,0.00,VWS V14.01,2013-02-06 10:37:00,
2013-02-06 05:41:00,26.2,10.1,29.85,NNE,25,0.0,0.0,50,0.00,,---,0.00,VWS V14.01,2013-02-06 10:41:00,
2013-02-06 05:42:00,26.2,10.1,29.85,NNE,25,0.0,0.0,50,0.00,,---,0.00,VWS V14.01,2013-02-06 10:42:00,
2013-02-06 05:46:00,26.6,11.4,29.85,NNE,25,0.0,0.0,52,0.00,,---,0.00,VWS V14.01,2013-02-06 10:46:00,
2013-02-06 05:47:00,26.6,11.4,29.85,NNE,25,0.0,0.0,52,0.00,,---,0.00,VWS V14.01,2013-02-06 10:47:00,
2013-02-06 05:48:00,26.8,11.5,29.85,NNE,25,0.0,0.0,52,0.00,,---,0.00,VWS V14.01,2013-02-06 10:48:00,
2013-02-06 05:51:00,27.1,12.7,29.85,NNE,25,2.2,4.0,54,0.00,,---,0.00,VWS V14.01,2013-02-06 10:51:00,
2013-02-06 05:52:00,27.1,12.7,29.85,NNE,25,2.2,4.0,54,0.00,,---,0.00,VWS V14.01,2013-02-06 10:52:00,
2013-02-06 05:53:00,27.1,12.7,29.85,NNE,25,2.2,2.2,54,0.00,,---,0.00,VWS V14.01,2013-02-06 10:53:00,
2013-02-06 05:57:00,27.1,13.1,29.85,NNE,25,3.1,3.1,55,0.00,,---,0.00,VWS V14.01,2013-02-06 10:57:00,
2013-02-06 06:02:00,27.5,13.5,29.85,NNE,25,0.0,0.0,55,0.00,,---,0.00,VWS V14.01,2013-02-06 11:02:00,
2013-02-06 06:07:00,27.9,14.2,29.85,NNE,25,0.0,0.0,56,0.00,,---,0.00,VWS V14.01,2013-02-06 11:07:00,
2013-02-06 06:12:00,28.0,14.8,29.85,NNE,25,0.0,0.0,57,0.00,,---,0.00,VWS V14.01,2013-02-06 11:12:00,
2013-02-06 06:17:00,28.2,15.0,29.85,NNE,25,0.0,0.0,57,0.00,,---,0.00,VWS V14.01,2013-02-06 11:17:00,
2013-02-06 06:18:00,28.2,14.6,29.85,NNE,25,0.0,0.0,56,0.00,,---,0.00,VWS V14.01,2013-02-06 11:18:00,
2013-02-06 06:22:00,28.4,14.7,29.88,NNE,25,0.0,0.0,56,0.00,,---,0.00,VWS V14.01,2013-02-06 11:22:00,
2013-02-06 06:23:00,28.4,15.1,29.88,NNE,25,0.0,0.0,57,0.00,,---,0.00,VWS V14.01,2013-02-06 11:23:00,
2013-02-06 06:27:00,28.6,15.3,29.88,NNE,25,0.0,0.0,57,0.00,,---,0.00,VWS V14.01,2013-02-06 11:27:00,
2013-02-06 06:28:00,28.6,15.7,29.88,NNE,25,0.0,0.0,58,0.00,,---,0.00,VWS V14.01,2013-02-06 11:28:00,
2013-02-06 06:32:00,28.8,17.8,29.88,WNW,297,0.0,2.7,63,0.00,,---,0.00,VWS V14.01,2013-02-06 11:32:00,
2013-02-06 06:33:00,28.8,17.8,29.88,WNW,297,0.0,0.0,63,0.00,,---,0.00,VWS V14.01,2013-02-06 11:33:00,
2013-02-06 06:37:00,28.9,19.4,29.88,WNW,286,2.2,2.2,67,0.00,,---,0.00,VWS V14.01,2013-02-06 11:37:00,
2013-02-06 06:38:00,28.9,19.7,29.88,WNW,286,0.0,0.0,68,0.00,,---,0.00,VWS V14.01,2013-02-06 11:38:00,
2013-02-06 06:42:00,29.3,20.7,29.88,WNW,286,0.0,0.0,70,0.00,,---,0.00,VWS V14.01,2013-02-06 11:42:00,
2013-02-06 06:43:00,29.3,21.1,29.88,WNW,286,0.0,0.0,71,0.00,,---,0.00,VWS V14.01,2013-02-06 11:43:00,
2013-02-06 06:47:00,29.5,21.9,29.88,WNW,290,3.6,3.6,73,0.00,,---,0.00,VWS V14.01,2013-02-06 11:47:00,
2013-02-06 06:48:00,29.5,21.9,29.88,West,281,2.7,3.1,73,0.00,,---,0.00,VWS V14.01,2013-02-06 11:48:00,
2013-02-06 06:52:00,29.8,22.9,29.91,WNW,284,2.2,5.8,75,0.00,,---,0.00,VWS V14.01,2013-02-06 11:52:00,
2013-02-06 06:53:00,29.8,22.9,29.91,WNW,288,2.7,2.7,75,0.00,,---,0.00,VWS V14.01,2013-02-06 11:53:00,
2013-02-06 06:57:00,30.2,23.9,29.91,West,278,2.7,3.1,77,0.00,,---,0.00,VWS V14.01,2013-02-06 11:57:00,
2013-02-06 06:58:00,30.2,23.9,29.91,West,278,0.0,0.0,77,0.00,,---,0.00,VWS V14.01,2013-02-06 11:58:00,
2013-02-06 07:02:00,30.2,23.9,29.91,WNW,290,2.7,3.6,77,0.00,,---,0.00,VWS V14.01,2013-02-06 12:02:00,
2013-02-06 07:03:00,30.2,23.9,29.91,WNW,290,2.2,4.0,77,0.00,,---,0.00,VWS V14.01,2013-02-06 12:03:00,
2013-02-06 07:04:00,30.2,23.9,29.91,WNW,291,2.2,2.2,77,0.00,,---,0.00,VWS V14.01,2013-02-06 12:04:00,
2013-02-06 07:07:00,30.2,23.9,29.91,WNW,301,0.0,0.0,77,0.00,,---,0.00,VWS V14.01,2013-02-06 12:07:00,
2013-02-06 07:08:00,30.2,23.9,29.91,WNW,301,0.0,0.0,77,0.00,,---,0.00,VWS V14.01,2013-02-06 12:08:00,
2013-02-06 07:09:00,30.2,23.9,29.91,WNW,283,5.4,5.4,77,0.00,,---,0.00,VWS V14.01,2013-02-06 12:09:00,
2013-02-06 07:12:00,30.2,23.6,29.91,WNW,283,0.0,0.0,76,0.00,,---,0.00,VWS V14.01,2013-02-06 12:12:00,
2013-02-06 07:13:00,30.2,23.6,29.91,NW,324,2.2,2.2,76,0.00,,---,0.00,VWS V14.01,2013-02-06 12:13:00,
2013-02-06 07:14:00,30.2,23.6,29.91,NW,325,0.0,3.1,76,0.00,,---,0.00,VWS V14.01,2013-02-06 12:14:00,
2013-02-06 07:18:00,30.0,23.1,29.91,NW,325,0.0,0.0,75,0.00,,---,0.00,VWS V14.01,2013-02-06 12:18:00,
2013-02-06 07:19:00,30.0,23.1,29.91,NW,325,0.0,0.0,75,0.00,,---,0.00,VWS V14.01,2013-02-06 12:19:00,
2013-02-06 07:23:00,30.0,22.8,29.91,NW,325,0.0,0.0,74,0.00,,---,0.00,VWS V14.01,2013-02-06 12:23:00,
2013-02-06 07:24:00,30.0,22.8,29.91,NW,325,0.0,0.0,74,0.00,,---,0.00,VWS V14.01,2013-02-06 12:24:00,
2013-02-06 07:28:00,30.0,22.8,29.91,NW,325,0.0,3.1,74,0.00,,---,0.00,VWS V14.01,2013-02-06 12:28:00,
2013-02-06 07:29:00,30.2,22.9,29.91,NW,325,0.0,0.0,74,0.00,,---,0.00,VWS V14.01,2013-02-06 12:29:00,
2013-02-06 07:33:00,30.2,22.9,29.91,NW,325,0.0,0.0,74,0.00,,---,0.00,VWS V14.01,2013-02-06 12:33:00,
2013-02-06 07:34:00,30.2,22.9,29.91,NW,325,0.0,0.0,74,0.00,,---,0.00,VWS V14.01,2013-02-06 12:34:00,
2013-02-06 07:38:00,30.2,22.6,29.91,NW,325,0.0,0.0,73,0.00,,---,0.00,VWS V14.01,2013-02-06 12:38:00,
2013-02-06 07:39:00,30.2,22.6,29.91,NW,325,0.0,0.0,73,0.00,,---,0.00,VWS V14.01,2013-02-06 12:39:00,
2013-02-06 07:40:00,30.2,22.6,29.91,NW,325,0.0,0.0,73,0.00,,---,0.00,VWS V14.01,2013-02-06 12:40:00,
2013-02-06 07:43:00,30.0,22.1,29.91,NW,325,0.0,0.0,72,0.00,,---,0.00,VWS V14.01,2013-02-06 12:43:00,
2013-02-06 07:44:00,30.0,22.1,29.91,NW,325,0.0,0.0,72,0.00,,---,0.00,VWS V14.01,2013-02-06 12:44:00,
2013-02-06 07:45:00,29.8,21.3,29.91,NW,325,0.0,2.7,70,0.00,,---,0.00,VWS V14.01,2013-02-06 12:45:00,
2013-02-06 07:48:00,29.7,19.4,29.91,WNW,289,2.7,3.6,65,0.00,,---,0.00,VWS V14.01,2013-02-06 12:48:00,
2013-02-06 07:49:00,29.7,19.0,29.91,WNW,289,0.0,0.0,64,0.00,,---,0.00,VWS V14.01,2013-02-06 12:49:00,
2013-02-06 07:50:00,29.8,19.5,29.91,WNW,296,2.7,3.1,65,0.00,,---,0.00,VWS V14.01,2013-02-06 12:50:00,
2013-02-06 07:53:00,30.0,20.4,29.94,NW,309,3.6,3.6,67,0.00,,---,0.00,VWS V14.01,2013-02-06 12:53:00,
2013-02-06 07:54:00,30.2,20.9,29.94,NW,306,4.0,4.0,68,0.00,,---,0.00,VWS V14.01,2013-02-06 12:54:00,
2013-02-06 07:55:00,30.2,21.3,29.94,NW,312,4.0,4.0,69,0.00,,---,0.00,VWS V14.01,2013-02-06 12:55:00,
2013-02-06 07:58:00,30.9,23.0,29.94,NW,313,2.7,3.6,72,0.00,,---,0.00,VWS V14.01,2013-02-06 12:58:00,
2013-02-06 07:59:00,30.9,22.6,29.94,NNW,331,4.9,5.8,71,0.00,,---,0.00,VWS V14.01,2013-02-06 12:59:00,
2013-02-06 08:00:00,30.9,22.6,29.94,NW,320,4.0,4.0,71,0.00,,---,0.00,VWS V14.01,2013-02-06 13:00:00,
2013-02-06 08:03:00,31.3,19.4,29.94,NW,310,4.0,7.6,61,0.00,,---,0.00,VWS V14.01,2013-02-06 13:03:00,
2013-02-06 08:04:00,31.3,18.6,29.94,NW,310,3.1,4.9,59,0.00,,---,0.00,VWS V14.01,2013-02-06 13:04:00,
2013-02-06 08:05:00,31.5,18.0,29.94,WNW,301,3.6,4.9,57,0.00,,---,0.00,VWS V14.01,2013-02-06 13:05:00,
2013-02-06 08:09:00,31.8,15.8,29.94,WNW,296,4.9,4.9,51,0.00,,---,0.00,VWS V14.01,2013-02-06 13:09:00,
2013-02-06 08:10:00,32.0,15.5,29.94,NW,320,4.0,4.0,50,0.00,,---,0.00,VWS V14.01,2013-02-06 13:10:00,
2013-02-06 08:14:00,32.2,13.2,29.94,NW,312,3.6,4.9,45,0.00,,---,0.00,VWS V14.01,2013-02-06 13:14:00,
2013-02-06 08:15:00,32.4,13.4,29.94,NW,318,4.9,5.4,45,0.00,,---,0.00,VWS V14.01,2013-02-06 13:15:00,
2013-02-06 08:19:00,32.7,12.2,29.94,WNW,297,3.6,4.0,42,0.00,,---,0.00,VWS V14.01,2013-02-06 13:19:00,
2013-02-06 08:20:00,32.7,12.2,29.94,WNW,291,5.8,5.8,42,0.00,,---,0.00,VWS V14.01,2013-02-06 13:20:00,
2013-02-06 08:21:00,32.9,12.3,29.94,WNW,302,5.8,5.8,42,0.00,,---,0.00,VWS V14.01,2013-02-06 13:21:00,
2013-02-06 08:24:00,33.1,12.0,29.94,WSW,254,5.4,5.4,41,0.00,,---,0.00,VWS V14.01,2013-02-06 13:24:00,
2013-02-06 08:25:00,33.1,11.4,29.94,WNW,284,5.8,8.7,40,0.00,,---,0.00,VWS V14.01,2013-02-06 13:25:00,
2013-02-06 08:26:00,33.1,11.4,29.94,NNW,329,5.4,5.4,40,0.00,,---,0.00,VWS V14.01,2013-02-06 13:26:00,
2013-02-06 08:30:00,33.4,10.6,29.94,West,274,5.8,8.1,38,0.00,,---,0.00,VWS V14.01,2013-02-06 13:30:00,
2013-02-06 08:31:00,33.6,11.9,29.94,West,278,5.4,5.4,40,0.00,,---,0.00,VWS V14.01,2013-02-06 13:31:00,
2013-02-06 08:35:00,33.8,10.3,29.94,NW,314,6.3,6.3,37,0.00,,---,0.00,VWS V14.01,2013-02-06 13:35:00,
2013-02-06 08:36:00,33.8,9.1,29.94,NNW,329,6.3,6.3,35,0.00,,---,0.00,VWS V14.01,2013-02-06 13:36:00,
2013-02-06 08:40:00,34.2,8.7,29.94,NW,319,5.4,5.4,34,0.00,,---,0.00,VWS V14.01,2013-02-06 13:40:00,
2013-02-06 08:41:00,34.3,9.5,29.94,NW,319,2.7,2.7,35,0.00,,---,0.00,VWS V14.01,2013-02-06 13:41:00,
2013-02-06 08:45:00,34.5,7.7,29.94,West,264,8.7,8.7,32,0.00,,---,0.00,VWS V14.01,2013-02-06 13:45:00,
2013-02-06 08:46:00,34.7,7.9,29.94,WNW,284,8.1,8.7,32,0.00,,---,0.00,VWS V14.01,2013-02-06 13:46:00,
2013-02-06 08:50:00,35.1,7.5,29.97,NNW,327,7.6,7.6,31,0.00,,---,0.00,VWS V14.01,2013-02-06 13:50:00,
2013-02-06 08:51:00,35.1,7.5,29.97,NNW,329,3.1,5.8,31,0.00,,---,0.00,VWS V14.01,2013-02-06 13:51:00,
2013-02-06 08:55:00,35.1,6.8,29.97,NW,308,6.3,8.7,30,0.00,,---,0.00,VWS V14.01,2013-02-06 13:55:00,
2013-02-06 08:56:00,35.1,6.8,29.97,WNW,295,5.8,5.8,30,0.00,,---,0.00,VWS V14.01,2013-02-06 13:56:00,
2013-02-06 09:00:00,35.2,6.9,29.97,West,262,4.0,8.7,30,0.00,,---,0.00,VWS V14.01,2013-02-06 14:00:00,
2013-02-06 09:01:00,35.2,6.9,29.97,WNW,297,5.4,6.3,30,0.00,,---,0.00,VWS V14.01,2013-02-06 14:01:00,
2013-02-06 09:05:00,35.4,7.1,29.97,WNW,301,4.0,4.0,30,0.00,,---,0.00,VWS V14.01,2013-02-06 14:05:00,
2013-02-06 09:06:00,35.4,7.1,29.97,West,273,4.0,4.0,30,0.00,,---,0.00,VWS V14.01,2013-02-06 14:06:00,
2013-02-06 09:10:00,35.4,4.8,29.97,West,276,8.1,8.1,27,0.00,,---,0.00,VWS V14.01,2013-02-06 14:10:00,
2013-02-06 09:11:00,35.4,4.8,29.97,WNW,291,5.8,8.1,27,0.00,,---,0.00,VWS V14.01,2013-02-06 14:11:00,
2013-02-06 09:15:00,35.4,7.1,29.97,NW,318,6.3,6.7,30,0.00,,---,0.00,VWS V14.01,2013-02-06 14:15:00,
2013-02-06 09:16:00,35.4,7.1,29.97,NW,318,6.7,6.7,30,0.00,,---,0.00,VWS V14.01,2013-02-06 14:16:00,
2013-02-06 09:20:00,35.4,4.8,29.97,NW,326,5.4,7.6,27,0.00,,---,0.00,VWS V14.01,2013-02-06 14:20:00,
2013-02-06 09:21:00,35.4,4.8,29.97,NW,311,7.6,7.6,27,0.00,,---,0.00,VWS V14.01,2013-02-06 14:21:00,
2013-02-06 09:25:00,35.6,4.9,29.97,WNW,298,3.1,3.6,27,0.00,,---,0.00,VWS V14.01,2013-02-06 14:25:00,
2013-02-06 09:26:00,35.6,4.9,29.97,NW,314,3.6,3.6,27,0.00,,---,0.00,VWS V14.01,2013-02-06 14:26:00,
2013-02-06 09:31:00,35.8,2.5,29.97,SW,235,8.1,8.7,24,0.00,,---,0.00,VWS V14.01,2013-02-06 14:31:00,
2013-02-06 09:36:00,35.8,0.7,29.97,SW,222,8.3,10.1,22,0.00,,---,0.00,VWS V14.01,2013-02-06 14:36:00,
2013-02-06 09:37:00,35.8,0.7,29.97,West,262,8.1,8.1,22,0.00,,---,0.00,VWS V14.01,2013-02-06 14:37:00,
2013-02-06 09:41:00,35.8,0.7,29.97,NNW,346,5.8,7.6,22,0.00,,---,0.00,VWS V14.01,2013-02-06 14:41:00,
2013-02-06 09:42:00,35.8,0.7,29.97,NNW,330,5.8,8.3,22,0.00,,---,0.00,VWS V14.01,2013-02-06 14:42:00,
2013-02-06 09:46:00,36.0,0.8,29.97,WSW,239,5.8,7.6,22,0.00,,---,0.00,VWS V14.01,2013-02-06 14:46:00,
2013-02-06 09:47:00,36.0,0.8,29.97,WNW,296,7.6,7.6,22,0.00,,---,0.00,VWS V14.01,2013-02-06 14:47:00,
2013-02-06 09:51:00,36.1,1.0,29.97,WNW,297,7.6,10.1,22,0.00,,---,0.00,VWS V14.01,2013-02-06 14:51:00,
2013-02-06 09:52:00,36.1,1.0,29.97,WNW,297,7.6,10.1,22,0.00,,---,0.00,VWS V14.01,2013-02-06 14:52:00,
2013-02-06 09:57:00,36.3,1.1,29.97,WNW,300,2.7,7.6,22,0.00,,---,0.00,VWS V14.01,2013-02-06 14:57:00,
2013-02-06 10:02:00,36.7,1.4,29.97,WNW,288,3.6,5.8,22,0.00,,---,0.00,VWS V14.01,2013-02-06 15:02:00,
2013-02-06 10:07:00,37.4,-1.1,29.97,West,265,8.1,11.0,19,0.00,,---,0.00,VWS V14.01,2013-02-06 15:07:00,
2013-02-06 10:12:00,38.1,-0.5,29.97,SW,236,6.3,11.0,19,0.00,,---,0.00,VWS V14.01,2013-02-06 15:12:00,
2013-02-06 10:13:00,38.1,-0.5,29.97,WSW,249,5.8,10.1,19,0.00,,---,0.00,VWS V14.01,2013-02-06 15:13:00,
2013-02-06 10:17:00,38.5,-0.2,29.97,WNW,286,6.3,10.1,19,0.00,,---,0.00,VWS V14.01,2013-02-06 15:17:00,
2013-02-06 10:18:00,38.5,-0.2,29.97,WSW,258,8.7,8.7,19,0.00,,---,0.00,VWS V14.01,2013-02-06 15:18:00,
2013-02-06 10:22:00,38.8,0.1,30.00,NW,311,4.9,13.2,19,0.00,,---,0.00,VWS V14.01,2013-02-06 15:22:00,
2013-02-06 10:23:00,38.8,0.1,30.00,WSW,257,6.7,6.7,19,0.00,,---,0.00,VWS V14.01,2013-02-06 15:23:00,
2013-02-06 10:27:00,39.0,-3.4,30.00,WNW,286,5.8,8.3,16,0.00,,---,0.00,VWS V14.01,2013-02-06 15:27:00,
2013-02-06 10:28:00,38.8,0.1,30.00,WSW,255,5.4,5.4,19,0.00,,---,0.00,VWS V14.01,2013-02-06 15:28:00,
2013-02-06 10:32:00,39.0,-3.4,30.00,NNW,328,5.4,8.3,16,0.00,,---,0.00,VWS V14.01,2013-02-06 15:32:00,
2013-02-06 10:33:00,39.2,-3.2,30.00,West,273,6.3,10.1,16,0.00,,---,0.00,VWS V14.01,2013-02-06 15:33:00,
2013-02-06 10:34:00,39.2,-3.2,30.00,NW,305,8.1,10.1,16,0.00,,---,0.00,VWS V14.01,2013-02-06 15:34:00,
2013-02-06 10:37:00,39.2,-3.2,30.00,SW,233,5.4,6.3,16,0.00,,---,0.00,VWS V14.01,2013-02-06 15:37:00,
2013-02-06 10:38:00,39.4,-3.1,30.00,WSW,257,8.3,8.3,16,0.00,,---,0.00,VWS V14.01,2013-02-06 15:38:00,
2013-02-06 10:39:00,39.6,-2.9,30.00,WSW,257,5.8,8.3,16,0.00,,---,0.00,VWS V14.01,2013-02-06 15:39:00,
2013-02-06 10:42:00,39.7,-2.8,30.00,SW,232,11.0,11.0,16,0.00,,---,0.00,VWS V14.01,2013-02-06 15:42:00,
2013-02-06 10:43:00,39.9,-2.6,30.00,West,268,5.4,8.7,16,0.00,,---,0.00,VWS V14.01,2013-02-06 15:43:00,
2013-02-06 10:44:00,39.7,-2.8,30.00,WNW,289,6.3,8.7,16,0.00,,---,0.00,VWS V14.01,2013-02-06 15:44:00,
2013-02-06 10:47:00,40.3,-2.3,30.00,WSW,254,5.4,8.1,16,0.00,,---,0.00,VWS V14.01,2013-02-06 15:47:00,
2013-02-06 10:48:00,40.3,-2.3,30.00,NNW,335,5.8,6.7,16,0.00,,---,0.00,VWS V14.01,2013-02-06 15:48:00,
2013-02-06 10:49:00,40.3,-2.3,30.00,WNW,294,5.4,5.4,16,0.00,,---,0.00,VWS V14.01,2013-02-06 15:49:00,
2013-02-06 10:52:00,40.3,-2.3,30.00,NNW,338,6.3,10.1,16,0.00,,---,0.00,VWS V14.01,2013-02-06 15:52:00,
2013-02-06 10:53:00,40.3,-2.3,30.00,WNW,294,5.8,14.5,16,0.00,,---,0.00,VWS V14.01,2013-02-06 15:53:00,
2013-02-06 10:54:00,40.3,-2.3,30.00,WNW,290,14.5,14.5,16,0.00,,---,0.00,VWS V14.01,2013-02-06 15:54:00,
2013-02-06 10:57:00,39.9,-2.6,30.00,NW,313,8.1,8.7,16,0.00,,---,0.00,VWS V14.01,2013-02-06 15:57:00,
2013-02-06 10:58:00,40.1,-2.5,30.00,SW,217,9.6,9.6,16,0.00,,---,0.00,VWS V14.01,2013-02-06 15:58:00,
2013-02-06 10:59:00,39.9,-2.6,30.00,WSW,255,10.1,10.1,16,0.00,,---,0.00,VWS V14.01,2013-02-06 15:59:00,
2013-02-06 11:02:00,39.9,-2.6,30.00,NW,306,12.3,12.3,16,0.00,,---,0.00,VWS V14.01,2013-02-06 16:02:00,
2013-02-06 11:03:00,39.9,-2.6,30.00,NW,312,10.5,16.8,16,0.00,,---,0.00,VWS V14.01,2013-02-06 16:03:00,
2013-02-06 11:04:00,39.6,-2.9,30.00,WNW,300,15.4,15.4,16,0.00,,---,0.00,VWS V14.01,2013-02-06 16:04:00,
2013-02-06 11:07:00,39.4,-3.1,30.00,SW,236,13.6,13.6,16,0.00,,---,0.00,VWS V14.01,2013-02-06 16:07:00,
2013-02-06 11:08:00,39.2,-3.2,30.00,NW,319,6.3,12.8,16,0.00,,---,0.00,VWS V14.01,2013-02-06 16:08:00,
2013-02-06 11:09:00,39.4,-3.1,30.00,WNW,293,8.3,8.3,16,0.00,,---,0.00,VWS V14.01,2013-02-06 16:09:00,
2013-02-06 11:12:00,39.7,-2.8,30.00,SW,234,5.4,14.5,16,0.00,,---,0.00,VWS V14.01,2013-02-06 16:12:00,
2013-02-06 11:14:00,39.9,-2.6,30.00,NNW,346,8.3,8.3,16,0.00,,---,0.00,VWS V14.01,2013-02-06 16:14:00,
2013-02-06 11:18:00,40.1,-2.5,30.00,WNW,298,8.7,8.7,16,0.00,,---,0.00,VWS V14.01,2013-02-06 16:18:00,
2013-02-06 11:19:00,40.3,-2.3,30.00,WNW,284,7.6,11.0,16,0.00,,---,0.00,VWS V14.01,2013-02-06 16:19:00,
2013-02-06 11:23:00,40.1,-2.5,30.00,NW,314,8.7,12.8,16,0.00,,---,0.00,VWS V14.01,2013-02-06 16:23:00,
2013-02-06 11:24:00,40.3,-2.3,30.00,NW,308,8.3,10.1,16,0.00,,---,0.00,VWS V14.01,2013-02-06 16:24:00,
2013-02-06 11:28:00,40.8,-1.9,30.00,NW,319,13.2,13.2,16,0.00,,---,0.00,VWS V14.01,2013-02-06 16:28:00,
2013-02-06 11:29:00,40.6,-2.0,30.00,West,264,8.1,10.1,16,0.00,,---,0.00,VWS V14.01,2013-02-06 16:29:00,
2013-02-06 11:33:00,40.6,-2.0,30.00,WSW,239,10.1,10.1,16,0.00,,---,0.00,VWS V14.01,2013-02-06 16:33:00,
2013-02-06 11:34:00,40.6,-2.0,30.00,WSW,256,10.1,12.3,16,0.00,,---,0.00,VWS V14.01,2013-02-06 16:34:00,
2013-02-06 11:38:00,40.5,-2.2,30.00,WNW,291,10.1,10.1,16,0.00,,---,0.00,VWS V14.01,2013-02-06 16:38:00,
2013-02-06 11:39:00,40.3,-2.3,30.00,WNW,286,11.0,11.0,16,0.00,,---,0.00,VWS V14.01,2013-02-06 16:39:00,
2013-02-06 11:40:00,40.3,-2.3,30.00,WNW,289,10.5,11.0,16,0.00,,---,0.00,VWS V14.01,2013-02-06 16:40:00,
2013-02-06 11:43:00,39.7,-2.8,30.00,WNW,285,8.7,8.7,16,0.00,,---,0.00,VWS V14.01,2013-02-06 16:43:00,
2013-02-06 11:44:00,39.9,-2.6,30.00,West,271,10.5,10.5,16,0.00,,---,0.00,VWS V14.01,2013-02-06 16:44:00,
2013-02-06 11:45:00,39.9,-2.6,30.00,NW,320,4.0,10.5,16,0.00,,---,0.00,VWS V14.01,2013-02-06 16:45:00,
2013-02-06 11:48:00,40.3,-2.3,30.00,NW,316,7.6,10.5,16,0.00,,---,0.00,VWS V14.01,2013-02-06 16:48:00,
2013-02-06 11:49:00,39.9,-2.6,30.00,NW,320,5.4,8.3,16,0.00,,---,0.00,VWS V14.01,2013-02-06 16:49:00,
2013-02-06 11:50:00,39.9,-2.6,30.00,West,272,5.8,8.3,16,0.00,,---,0.00,VWS V14.01,2013-02-06 16:50:00,
2013-02-06 11:53:00,40.6,-2.0,30.00,SSW,200,11.4,11.4,16,0.00,,---,0.00,VWS V14.01,2013-02-06 16:53:00,
2013-02-06 11:54:00,41.0,-1.7,30.00,West,268,11.0,11.9,16,0.00,,---,0.00,VWS V14.01,2013-02-06 16:54:00,
2013-02-06 11:55:00,41.0,-1.7,30.00,West,274,14.5,14.5,16,0.00,,---,0.00,VWS V14.01,2013-02-06 16:55:00,
2013-02-06 11:58:00,40.6,-2.0,30.00,NW,307,8.7,8.7,16,0.00,,---,0.00,VWS V14.01,2013-02-06 16:58:00,
2013-02-06 11:59:00,40.5,-2.2,30.00,WNW,286,10.1,12.3,16,0.00,,---,0.00,VWS V14.01,2013-02-06 16:59:00,
2013-02-06 12:00:00,40.5,-2.2,30.00,West,269,12.3,12.3,16,0.00,,---,0.00,VWS V14.01,2013-02-06 17:00:00,
2013-02-06 12:03:00,40.3,-2.3,30.00,WNW,288,11.9,13.2,16,0.00,,---,0.00,VWS V14.01,2013-02-06 17:03:00,
2013-02-06 12:04:00,40.6,-2.0,30.00,West,276,8.3,10.1,16,0.00,,---,0.00,VWS V14.01,2013-02-06 17:04:00,
2013-02-06 12:05:00,40.6,-2.0,30.00,WNW,291,15.0,15.0,16,0.00,,---,0.00,VWS V14.01,2013-02-06 17:05:00,
2013-02-06 12:08:00,40.5,-2.2,30.00,WNW,292,11.0,11.0,16,0.00,,---,0.00,VWS V14.01,2013-02-06 17:08:00,
2013-02-06 12:09:00,40.6,-2.0,30.00,WNW,291,8.3,10.1,16,0.00,,---,0.00,VWS V14.01,2013-02-06 17:09:00,
2013-02-06 12:10:00,40.6,-2.0,30.00,NW,318,10.5,11.0,16,0.00,,---,0.00,VWS V14.01,2013-02-06 17:10:00,
2013-02-06 12:13:00,40.5,-2.2,30.00,NW,320,10.1,13.2,16,0.00,,---,0.00,VWS V14.01,2013-02-06 17:13:00,
2013-02-06 12:15:00,40.5,-2.2,30.00,NW,312,5.4,13.6,16,0.00,,---,0.00,VWS V14.01,2013-02-06 17:15:00,
2013-02-06 12:18:00,41.4,-1.5,30.00,NW,310,7.6,8.3,16,0.00,,---,0.00,VWS V14.01,2013-02-06 17:18:00,
2013-02-06 12:20:00,41.0,-1.7,30.00,NW,319,10.1,12.3,16,0.00,,---,0.00,VWS V14.01,2013-02-06 17:20:00,
2013-02-06 12:24:00,40.6,-2.0,30.00,WSW,247,12.8,12.8,16,0.00,,---,0.00,VWS V14.01,2013-02-06 17:24:00,
2013-02-06 12:25:00,40.5,-2.2,30.00,SW,224,6.3,11.0,16,0.00,,---,0.00,VWS V14.01,2013-02-06 17:25:00,
2013-02-06 12:26:00,40.6,-2.0,30.00,West,265,5.8,5.8,16,0.00,,---,0.00,VWS V14.01,2013-02-06 17:26:00,
2013-02-06 12:29:00,41.0,-1.7,30.00,West,271,8.3,11.4,16,0.00,,---,0.00,VWS V14.01,2013-02-06 17:29:00,
2013-02-06 12:30:00,41.2,-1.6,30.00,WNW,290,11.4,11.4,16,0.00,,---,0.00,VWS V14.01,2013-02-06 17:30:00,
2013-02-06 12:31:00,41.2,-1.6,30.00,WNW,290,11.4,11.4,16,0.00,,---,0.00,VWS V14.01,2013-02-06 17:31:00,
2013-02-06 12:34:00,41.4,-1.5,30.00,WSW,250,8.3,8.3,16,0.00,,---,0.00,VWS V14.01,2013-02-06 17:34:00,
2013-02-06 12:36:00,41.9,-1.0,30.00,SW,225,10.5,10.5,16,0.00,,---,0.00,VWS V14.01,2013-02-06 17:36:00,
2013-02-06 12:39:00,41.9,-1.0,30.00,West,268,8.1,10.5,16,0.00,,---,0.00,VWS V14.01,2013-02-06 17:39:00,
2013-02-06 12:41:00,42.3,-0.7,30.00,SSW,205,5.8,7.6,16,0.00,,---,0.00,VWS V14.01,2013-02-06 17:41:00,
2013-02-06 12:44:00,41.9,-1.0,30.00,WNW,301,7.6,7.6,16,0.00,,---,0.00,VWS V14.01,2013-02-06 17:44:00,
2013-02-06 12:46:00,41.4,-1.5,30.00,West,275,8.7,11.0,16,0.00,,---,0.00,VWS V14.01,2013-02-06 17:46:00,
2013-02-06 12:49:00,41.0,-1.7,30.00,SW,227,8.1,9.6,16,0.00,,---,0.00,VWS V14.01,2013-02-06 17:49:00,
2013-02-06 12:51:00,41.0,-1.7,30.00,SW,229,7.6,7.6,16,0.00,,---,0.00,VWS V14.01,2013-02-06 17:51:00,
2013-02-06 12:54:00,40.5,-2.2,30.00,West,274,12.8,17.0,16,0.00,,---,0.00,VWS V14.01,2013-02-06 17:54:00,
2013-02-06 12:56:00,40.3,-2.3,30.00,WNW,289,11.0,12.8,16,0.00,,---,0.00,VWS V14.01,2013-02-06 17:56:00,
2013-02-06 12:59:00,40.6,-2.0,30.00,NW,319,12.3,12.3,16,0.00,,---,0.00,VWS V14.01,2013-02-06 17:59:00,
2013-02-06 13:01:00,40.5,-2.2,30.00,WNW,285,8.1,8.1,16,0.00,,---,0.00,VWS V14.01,2013-02-06 18:01:00,
2013-02-06 13:04:00,40.8,-1.9,30.00,SW,223,6.3,10.5,16,0.00,,---,0.00,VWS V14.01,2013-02-06 18:04:00,
2013-02-06 13:06:00,40.8,-1.9,30.00,West,276,11.0,15.0,16,0.00,,---,0.00,VWS V14.01,2013-02-06 18:06:00,
2013-02-06 13:09:00,40.3,-2.3,30.00,West,279,8.3,8.7,16,0.00,,---,0.00,VWS V14.01,2013-02-06 18:09:00,
2013-02-06 13:11:00,40.3,-2.3,30.00,West,280,11.0,11.0,16,0.00,,---,0.00,VWS V14.01,2013-02-06 18:11:00,
2013-02-06 13:14:00,40.5,-2.2,30.00,WNW,283,7.6,10.1,16,0.00,,---,0.00,VWS V14.01,2013-02-06 18:14:00,
2013-02-06 13:16:00,40.5,-2.2,30.00,NNW,331,8.7,8.7,16,0.00,,---,0.00,VWS V14.01,2013-02-06 18:16:00,
2013-02-06 13:17:00,40.3,-2.3,30.00,WNW,299,5.8,8.7,16,0.00,,---,0.00,VWS V14.01,2013-02-06 18:17:00,
2013-02-06 13:19:00,40.3,-2.3,30.00,West,265,5.8,13.2,16,0.00,,---,0.00,VWS V14.01,2013-02-06 18:19:00,
2013-02-06 13:21:00,40.3,-2.3,30.00,SW,230,5.4,10.1,16,0.00,,---,0.00,VWS V14.01,2013-02-06 18:21:00,
2013-02-06 13:22:00,40.3,-2.3,30.00,WNW,290,10.5,10.5,16,0.00,,---,0.00,VWS V14.01,2013-02-06 18:22:00,
2013-02-06 13:25:00,40.3,-2.3,30.00,WNW,290,6.3,8.1,16,0.00,,---,0.00,VWS V14.01,2013-02-06 18:25:00,
2013-02-06 13:26:00,40.3,-2.3,30.00,WSW,253,6.3,8.1,16,0.00,,---,0.00,VWS V14.01,2013-02-06 18:26:00,
2013-02-06 13:27:00,40.3,-2.3,30.00,WNW,289,5.8,8.1,16,0.00,,---,0.00,VWS V14.01,2013-02-06 18:27:00,
2013-02-06 13:30:00,40.1,-2.5,30.00,NW,323,8.3,13.6,16,0.00,,---,0.00,VWS V14.01,2013-02-06 18:30:00,
2013-02-06 13:31:00,39.7,-2.8,30.00,NW,316,6.3,7.6,16,0.00,,---,0.00,VWS V14.01,2013-02-06 18:31:00,
2013-02-06 13:32:00,39.7,-2.8,30.00,NNW,341,10.1,10.1,16,0.00,,---,0.00,VWS V14.01,2013-02-06 18:32:00,
2013-02-06 13:35:00,39.2,-3.2,30.00,NW,306,7.6,7.6,16,0.00,,---,0.00,VWS V14.01,2013-02-06 18:35:00,
2013-02-06 13:36:00,39.2,-3.2,30.00,West,260,8.3,8.7,16,0.00,,---,0.00,VWS V14.01,2013-02-06 18:36:00,
2013-02-06 13:37:00,39.2,-3.2,30.00,West,261,4.0,8.7,16,0.00,,---,0.00,VWS V14.01,2013-02-06 18:37:00,
2013-02-06 13:40:00,39.4,-3.1,30.00,SW,215,5.4,5.4,16,0.00,,---,0.00,VWS V14.01,2013-02-06 18:40:00,
2013-02-06 13:41:00,39.6,-2.9,30.00,WSW,244,4.0,4.0,16,0.00,,---,0.00,VWS V14.01,2013-02-06 18:41:00,
2013-02-06 13:42:00,39.6,-2.9,30.00,WNW,294,8.1,8.1,16,0.00,,---,0.00,VWS V14.01,2013-02-06 18:42:00,
2013-02-06 13:45:00,39.9,-2.6,30.00,NW,318,8.7,10.1,16,0.00,,---,0.00,VWS V14.01,2013-02-06 18:45:00,
2013-02-06 13:46:00,39.9,-2.6,30.00,WNW,290,10.1,10.1,16,0.00,,---,0.00,VWS V14.01,2013-02-06 18:46:00,
2013-02-06 13:47:00,39.9,-2.6,30.00,WSW,253,8.3,8.3,16,0.00,,---,0.00,VWS V14.01,2013-02-06 18:47:00,
2013-02-06 13:50:00,39.6,-2.9,30.00,WNW,284,8.7,8.7,16,0.00,,---,0.00,VWS V14.01,2013-02-06 18:50:00,
2013-02-06 13:52:00,39.4,-3.1,30.00,SSW,199,8.1,10.5,16,0.00,,---,0.00,VWS V14.01,2013-02-06 18:52:00,
2013-02-06 13:55:00,39.4,-3.1,30.00,WSW,250,4.9,6.3,16,0.00,,---,0.00,VWS V14.01,2013-02-06 18:55:00,
2013-02-06 13:57:00,39.6,-2.9,30.00,WSW,254,5.4,5.4,16,0.00,,---,0.00,VWS V14.01,2013-02-06 18:57:00,
2013-02-06 14:00:00,39.4,-3.1,30.00,WSW,257,3.6,10.5,16,0.00,,---,0.00,VWS V14.01,2013-02-06 19:00:00,
2013-02-06 14:02:00,39.4,-3.1,30.00,NW,316,5.4,10.1,16,0.00,,---,0.00,VWS V14.01,2013-02-06 19:02:00,
2013-02-06 14:03:00,39.4,-3.1,30.00,WSW,242,5.4,5.8,16,0.00,,---,0.00,VWS V14.01,2013-02-06 19:03:00,
2013-02-06 14:05:00,39.6,-2.9,30.00,WSW,258,5.4,11.0,16,0.00,,---,0.00,VWS V14.01,2013-02-06 19:05:00,
2013-02-06 14:07:00,39.4,-3.1,30.00,West,264,8.3,8.3,16,0.00,,---,0.00,VWS V14.01,2013-02-06 19:07:00,
2013-02-06 14:08:00,39.4,-3.1,30.00,NW,305,3.6,8.3,16,0.00,,---,0.00,VWS V14.01,2013-02-06 19:08:00,
2013-02-06 14:11:00,39.4,-3.1,30.00,WSW,257,6.3,6.3,16,0.00,,---,0.00,VWS V14.01,2013-02-06 19:11:00,
2013-02-06 14:12:00,39.2,-3.2,30.00,West,276,7.6,8.3,16,0.00,,---,0.00,VWS V14.01,2013-02-06 19:12:00,
2013-02-06 14:13:00,39.2,-3.2,30.00,WNW,288,6.3,10.1,16,0.00,,---,0.00,VWS V14.01,2013-02-06 19:13:00,
2013-02-06 14:16:00,39.2,-3.2,30.00,WSW,247,8.1,8.1,16,0.00,,---,0.00,VWS V14.01,2013-02-06 19:16:00,
2013-02-06 14:17:00,39.2,-3.2,30.00,WNW,291,4.0,4.0,16,0.00,,---,0.00,VWS V14.01,2013-02-06 19:17:00,
2013-02-06 14:18:00,39.2,-3.2,30.00,WNW,293,7.6,7.6,16,0.00,,---,0.00,VWS V14.01,2013-02-06 19:18:00,
2013-02-06 14:21:00,39.6,-2.9,30.00,NW,319,3.6,3.6,16,0.00,,---,0.00,VWS V14.01,2013-02-06 19:21:00,
2013-02-06 14:22:00,39.7,-2.8,30.00,SW,232,5.8,5.8,16,0.00,,---,0.00,VWS V14.01,2013-02-06 19:22:00,
2013-02-06 14:23:00,39.7,-2.8,30.00,SW,231,5.8,5.8,16,0.00,,---,0.00,VWS V14.01,2013-02-06 19:23:00,
2013-02-06 14:26:00,40.1,-2.5,30.00,SW,235,12.8,12.8,16,0.00,,---,0.00,VWS V14.01,2013-02-06 19:26:00,
2013-02-06 14:27:00,40.3,-2.3,30.00,SW,226,12.8,12.8,16,0.00,,---,0.00,VWS V14.01,2013-02-06 19:27:00,
2013-02-06 14:28:00,40.3,-2.3,30.00,WSW,256,7.6,7.6,16,0.00,,---,0.00,VWS V14.01,2013-02-06 19:28:00,
2013-02-06 14:31:00,40.6,-2.0,30.00,SW,223,7.6,7.6,16,0.00,,---,0.00,VWS V14.01,2013-02-06 19:31:00,
2013-02-06 14:32:00,40.6,-2.0,30.00,West,281,6.3,14.1,16,0.00,,---,0.00,VWS V14.01,2013-02-06 19:32:00,
2013-02-06 14:33:00,40.6,-2.0,30.00,WNW,284,8.7,10.1,16,0.00,,---,0.00,VWS V14.01,2013-02-06 19:33:00,
2013-02-06 14:36:00,39.9,-2.6,30.00,WNW,295,8.3,10.5,16,0.00,,---,0.00,VWS V14.01,2013-02-06 19:36:00,
2013-02-06 14:37:00,39.9,-2.6,30.00,West,278,9.6,9.6,16,0.00,,---,0.00,VWS V14.01,2013-02-06 19:37:00,
2013-02-06 14:38:00,39.9,-2.6,30.00,West,273,5.8,5.8,16,0.00,,---,0.00,VWS V14.01,2013-02-06 19:38:00,
2013-02-06 14:41:00,39.7,-2.8,30.00,SW,220,4.9,11.9,16,0.00,,---,0.00,VWS V14.01,2013-02-06 19:41:00,
2013-02-06 14:42:00,39.7,-2.8,30.00,SW,233,6.3,6.3,16,0.00,,---,0.00,VWS V14.01,2013-02-06 19:42:00,
2013-02-06 14:43:00,39.7,-2.8,30.00,WSW,240,7.6,8.7,16,0.00,,---,0.00,VWS V14.01,2013-02-06 19:43:00,
2013-02-06 14:47:00,39.7,-2.8,30.00,SW,215,5.8,10.5,16,0.00,,---,0.00,VWS V14.01,2013-02-06 19:47:00,
2013-02-06 14:48:00,39.9,-2.6,30.00,NNW,339,10.5,10.5,16,0.00,,---,0.00,VWS V14.01,2013-02-06 19:48:00,
2013-02-06 14:52:00,39.9,-2.6,30.03,WNW,287,10.1,11.0,16,0.00,,---,0.00,VWS V14.01,2013-02-06 19:52:00,
2013-02-06 14:53:00,39.9,-2.6,30.03,NW,310,5.4,5.8,16,0.00,,---,0.00,VWS V14.01,2013-02-06 19:53:00,
2013-02-06 14:57:00,40.3,-2.3,30.03,SW,235,7.6,11.0,16,0.00,,---,0.00,VWS V14.01,2013-02-06 19:57:00,
2013-02-06 14:58:00,40.3,-2.3,30.03,NW,307,11.0,11.0,16,0.00,,---,0.00,VWS V14.01,2013-02-06 19:58:00,
2013-02-06 15:02:00,39.7,-2.8,30.03,West,281,6.3,11.0,16,0.00,,---,0.00,VWS V14.01,2013-02-06 20:02:00,
2013-02-06 15:03:00,39.7,-2.8,30.03,NW,307,6.3,8.3,16,0.00,,---,0.00,VWS V14.01,2013-02-06 20:03:00,
2013-02-06 15:07:00,39.4,-3.1,30.03,WSW,250,6.3,6.3,16,0.00,,---,0.00,VWS V14.01,2013-02-06 20:07:00,
2013-02-06 15:08:00,39.4,-3.1,30.03,West,277,4.9,6.7,16,0.00,,---,0.00,VWS V14.01,2013-02-06 20:08:00,
2013-02-06 15:12:00,39.6,-2.9,30.03,SW,233,3.1,3.1,16,0.00,,---,0.00,VWS V14.01,2013-02-06 20:12:00,
2013-02-06 15:13:00,39.6,-2.9,30.03,WSW,248,4.9,4.9,16,0.00,,---,0.00,VWS V14.01,2013-02-06 20:13:00,
2013-02-06 15:17:00,39.6,-2.9,30.03,SW,236,8.7,8.7,16,0.00,,---,0.00,VWS V14.01,2013-02-06 20:17:00,
2013-02-06 15:18:00,39.6,-2.9,30.03,WSW,239,7.6,12.3,16,0.00,,---,0.00,VWS V14.01,2013-02-06 20:18:00,
2013-02-06 15:22:00,39.4,-3.1,30.03,West,261,4.0,8.3,16,0.00,,---,0.00,VWS V14.01,2013-02-06 20:22:00,
2013-02-06 15:23:00,39.6,-2.9,30.03,NNW,335,8.3,8.3,16,0.00,,---,0.00,VWS V14.01,2013-02-06 20:23:00,
2013-02-06 15:24:00,39.6,-2.9,30.03,SW,236,10.5,10.5,16,0.00,,---,0.00,VWS V14.01,2013-02-06 20:24:00,
2013-02-06 15:27:00,39.6,-2.9,30.03,WSW,244,7.6,11.0,16,0.00,,---,0.00,VWS V14.01,2013-02-06 20:27:00,
2013-02-06 15:28:00,39.7,-2.8,30.03,SW,225,6.3,6.3,16,0.00,,---,0.00,VWS V14.01,2013-02-06 20:28:00,
2013-02-06 15:29:00,39.7,-2.8,30.03,SW,225,5.8,6.3,16,0.00,,---,0.00,VWS V14.01,2013-02-06 20:29:00,
2013-02-06 15:32:00,39.9,-2.6,30.03,West,263,6.3,8.1,16,0.00,,---,0.00,VWS V14.01,2013-02-06 20:32:00,
2013-02-06 15:34:00,39.9,-2.6,30.03,WSW,258,6.3,10.5,16,0.00,,---,0.00,VWS V14.01,2013-02-06 20:34:00,
2013-02-06 15:37:00,39.9,-2.6,30.03,SSE,154,5.4,5.8,16,0.00,,---,0.00,VWS V14.01,2013-02-06 20:37:00,
2013-02-06 15:39:00,40.1,-2.5,30.03,WSW,257,8.1,8.1,16,0.00,,---,0.00,VWS V14.01,2013-02-06 20:39:00,
2013-02-06 15:43:00,40.1,-2.5,30.03,WSW,254,5.8,11.0,16,0.00,,---,0.00,VWS V14.01,2013-02-06 20:43:00,
2013-02-06 15:44:00,39.9,-2.6,30.03,WNW,294,8.3,8.3,16,0.00,,---,0.00,VWS V14.01,2013-02-06 20:44:00,
2013-02-06 15:45:00,39.9,-2.6,30.03,WNW,285,8.7,15.4,16,0.00,,---,0.00,VWS V14.01,2013-02-06 20:45:00,
2013-02-06 15:48:00,39.9,-2.6,30.03,WNW,282,9.6,9.6,16,0.00,,---,0.00,VWS V14.01,2013-02-06 20:48:00,
2013-02-06 15:49:00,39.9,-2.6,30.03,WSW,253,6.3,7.6,16,0.00,,---,0.00,VWS V14.01,2013-02-06 20:49:00,
2013-02-06 15:50:00,39.9,-2.6,30.03,WNW,283,8.7,8.7,16,0.00,,---,0.00,VWS V14.01,2013-02-06 20:50:00,
2013-02-06 15:53:00,39.7,-2.8,30.03,WSW,256,5.4,5.4,16,0.00,,---,0.00,VWS V14.01,2013-02-06 20:53:00,
2013-02-06 15:54:00,39.7,-2.8,30.03,West,273,8.3,8.3,16,0.00,,---,0.00,VWS V14.01,2013-02-06 20:54:00,
2013-02-06 15:55:00,39.7,-2.8,30.03,West,266,8.7,8.7,16,0.00,,---,0.00,VWS V14.01,2013-02-06 20:55:00,
2013-02-06 15:58:00,39.6,-2.9,30.03,WNW,289,3.6,4.0,16,0.00,,---,0.00,VWS V14.01,2013-02-06 20:58:00,
2013-02-06 15:59:00,39.6,-2.9,30.03,West,273,5.4,5.4,16,0.00,,---,0.00,VWS V14.01,2013-02-06 20:59:00,
2013-02-06 16:00:00,39.6,-2.9,30.03,West,268,4.0,5.4,16,0.00,,---,0.00,VWS V14.01,2013-02-06 21:00:00,
2013-02-06 16:03:00,39.4,-3.1,30.03,West,277,8.7,8.7,16,0.00,,---,0.00,VWS V14.01,2013-02-06 21:03:00,
2013-02-06 16:05:00,39.2,-3.2,30.03,SW,232,4.0,12.8,16,0.00,,---,0.00,VWS V14.01,2013-02-06 21:05:00,
2013-02-06 16:08:00,39.2,-3.2,30.03,WSW,253,5.4,5.8,16,0.00,,---,0.00,VWS V14.01,2013-02-06 21:08:00,
2013-02-06 16:10:00,39.2,-3.2,30.03,WSW,243,4.9,8.7,16,0.00,,---,0.00,VWS V14.01,2013-02-06 21:10:00,
2013-02-06 16:13:00,39.0,-3.4,30.03,WSW,254,11.0,11.0,16,0.00,,---,0.00,VWS V14.01,2013-02-06 21:13:00,
2013-02-06 16:15:00,39.0,-3.4,30.03,WNW,285,5.4,5.4,16,0.00,,---,0.00,VWS V14.01,2013-02-06 21:15:00,
2013-02-06 16:18:00,38.8,-3.5,30.03,SW,229,7.6,7.6,16,0.00,,---,0.00,VWS V14.01,2013-02-06 21:18:00,
2013-02-06 16:20:00,38.8,-3.5,30.03,SW,223,5.8,5.8,16,0.00,,---,0.00,VWS V14.01,2013-02-06 21:20:00,
2013-02-06 16:23:00,38.7,-3.7,30.03,WSW,238,7.6,10.1,16,0.00,,---,0.00,VWS V14.01,2013-02-06 21:23:00,
2013-02-06 16:25:00,38.7,-3.7,30.03,South,182,7.6,7.6,16,0.00,,---,0.00,VWS V14.01,2013-02-06 21:25:00,
2013-02-06 16:28:00,38.5,-3.8,30.03,WNW,301,8.7,10.5,16,0.00,,---,0.00,VWS V14.01,2013-02-06 21:28:00,
2013-02-06 16:30:00,38.5,-3.8,30.03,WNW,283,6.3,7.2,16,0.00,,---,0.00,VWS V14.01,2013-02-06 21:30:00,
2013-02-06 16:33:00,38.5,-3.8,30.03,West,264,3.6,5.4,16,0.00,,---,0.00,VWS V14.01,2013-02-06 21:33:00,
2013-02-06 16:35:00,38.5,-3.8,30.03,West,262,7.6,11.4,16,0.00,,---,0.00,VWS V14.01,2013-02-06 21:35:00,
2013-02-06 16:36:00,38.5,-3.8,30.03,West,259,3.1,11.9,16,0.00,,---,0.00,VWS V14.01,2013-02-06 21:36:00,
2013-02-06 16:38:00,38.5,-3.8,30.03,SW,225,4.0,8.7,16,0.00,,---,0.00,VWS V14.01,2013-02-06 21:38:00,
2013-02-06 16:40:00,38.3,-4.0,30.03,WSW,257,8.3,8.3,16,0.00,,---,0.00,VWS V14.01,2013-02-06 21:40:00,
2013-02-06 16:41:00,38.3,-4.0,30.03,West,264,4.9,8.3,16,0.00,,---,0.00,VWS V14.01,2013-02-06 21:41:00,
2013-02-06 16:44:00,38.1,-4.1,30.03,West,261,4.0,4.0,16,0.00,,---,0.00,VWS V14.01,2013-02-06 21:44:00,
2013-02-06 16:45:00,38.1,-4.1,30.03,WNW,291,6.3,6.3,16,0.00,,---,0.00,VWS V14.01,2013-02-06 21:45:00,
2013-02-06 16:46:00,38.1,-4.1,30.03,WNW,292,3.1,6.3,16,0.00,,---,0.00,VWS V14.01,2013-02-06 21:46:00,
2013-02-06 16:49:00,37.9,-4.2,30.03,WSW,249,5.4,8.1,16,0.00,,---,0.00,VWS V14.01,2013-02-06 21:49:00,
2013-02-06 16:50:00,37.9,-4.2,30.03,WNW,303,7.6,7.6,16,0.00,,---,0.00,VWS V14.01,2013-02-06 21:50:00,
2013-02-06 16:51:00,37.9,-4.2,30.06,West,268,5.4,7.6,16,0.00,,---,0.00,VWS V14.01,2013-02-06 21:51:00,
2013-02-06 16:54:00,37.9,-4.2,30.06,West,265,4.9,10.5,16,0.00,,---,0.00,VWS V14.01,2013-02-06 21:54:00,
2013-02-06 16:55:00,37.9,-4.2,30.06,WSW,257,3.1,4.0,16,0.00,,---,0.00,VWS V14.01,2013-02-06 21:55:00,
2013-02-06 16:56:00,37.9,-4.2,30.06,WSW,255,7.6,7.6,16,0.00,,---,0.00,VWS V14.01,2013-02-06 21:56:00,
2013-02-06 16:59:00,37.9,-4.2,30.06,West,263,6.3,8.1,16,0.00,,---,0.00,VWS V14.01,2013-02-06 21:59:00,
2013-02-06 17:00:00,37.9,-4.2,30.06,West,278,11.0,11.0,16,0.00,,---,0.00,VWS V14.01,2013-02-06 22:00:00,
2013-02-06 17:01:00,37.9,-4.2,30.06,West,281,8.1,8.1,16,0.00,,---,0.00,VWS V14.01,2013-02-06 22:01:00,
2013-02-06 17:04:00,37.8,-4.4,30.06,West,265,2.7,2.7,16,0.00,,---,0.00,VWS V14.01,2013-02-06 22:04:00,
2013-02-06 17:05:00,37.6,-4.5,30.06,NW,304,5.8,5.8,16,0.00,,---,0.00,VWS V14.01,2013-02-06 22:05:00,
2013-02-06 17:06:00,37.6,-4.5,30.06,WSW,254,5.8,5.8,16,0.00,,---,0.00,VWS V14.01,2013-02-06 22:06:00,
2013-02-06 17:09:00,37.6,-4.5,30.06,West,277,6.3,6.7,16,0.00,,---,0.00,VWS V14.01,2013-02-06 22:09:00,
2013-02-06 17:10:00,37.6,-4.5,30.06,NW,307,4.9,8.1,16,0.00,,---,0.00,VWS V14.01,2013-02-06 22:10:00,
2013-02-06 17:11:00,37.6,-4.5,30.06,West,276,5.4,5.4,16,0.00,,---,0.00,VWS V14.01,2013-02-06 22:11:00,
2013-02-06 17:14:00,37.4,-4.7,30.06,West,272,4.0,5.8,16,0.00,,---,0.00,VWS V14.01,2013-02-06 22:14:00,
2013-02-06 17:15:00,37.4,-4.7,30.06,WNW,301,2.7,4.0,16,0.00,,---,0.00,VWS V14.01,2013-02-06 22:15:00,
2013-02-06 17:16:00,37.4,-4.7,30.06,WNW,302,3.6,3.6,16,0.00,,---,0.00,VWS V14.01,2013-02-06 22:16:00,
2013-02-06 17:19:00,37.4,-4.7,30.06,WNW,289,3.1,3.1,16,0.00,,---,0.00,VWS V14.01,2013-02-06 22:19:00,
2013-02-06 17:20:00,37.2,-3.6,30.06,WNW,302,6.7,6.7,17,0.00,,---,0.00,VWS V14.01,2013-02-06 22:20:00,
2013-02-06 17:21:00,37.2,-3.6,30.06,WNW,302,8.1,8.7,17,0.00,,---,0.00,VWS V14.01,2013-02-06 22:21:00,
2013-02-06 17:24:00,37.0,-3.7,30.06,WSW,246,4.0,5.8,17,0.00,,---,0.00,VWS V14.01,2013-02-06 22:24:00,
2013-02-06 17:25:00,37.0,-3.7,30.06,West,274,4.0,5.8,17,0.00,,---,0.00,VWS V14.01,2013-02-06 22:25:00,
2013-02-06 17:26:00,37.0,-3.7,30.06,West,264,3.6,4.0,17,0.00,,---,0.00,VWS V14.01,2013-02-06 22:26:00,
2013-02-06 17:30:00,36.9,-3.9,30.06,SW,228,2.7,5.8,17,0.00,,---,0.00,VWS V14.01,2013-02-06 22:30:00,
2013-02-06 17:31:00,36.9,-3.9,30.06,WSW,257,4.0,5.8,17,0.00,,---,0.00,VWS V14.01,2013-02-06 22:31:00,
2013-02-06 17:35:00,36.3,-4.3,30.06,West,280,6.3,6.3,17,0.00,,---,0.00,VWS V14.01,2013-02-06 22:35:00,
2013-02-06 17:36:00,36.3,-4.3,30.06,West,273,5.8,8.7,17,0.00,,---,0.00,VWS V14.01,2013-02-06 22:36:00,
2013-02-06 17:40:00,36.3,-4.3,30.06,WNW,291,2.7,3.1,17,0.00,,---,0.00,VWS V14.01,2013-02-06 22:40:00,
2013-02-06 17:41:00,36.3,-4.3,30.06,West,274,3.1,3.1,17,0.00,,---,0.00,VWS V14.01,2013-02-06 22:41:00,
2013-02-06 17:42:00,36.3,-4.3,30.06,WSW,253,3.1,6.3,17,0.00,,---,0.00,VWS V14.01,2013-02-06 22:42:00,
2013-02-06 17:45:00,36.1,-4.5,30.06,SW,220,4.0,4.9,17,0.00,,---,0.00,VWS V14.01,2013-02-06 22:45:00,
2013-02-06 17:46:00,36.0,-4.6,30.06,West,274,4.0,4.0,17,0.00,,---,0.00,VWS V14.01,2013-02-06 22:46:00,
2013-02-06 17:47:00,36.0,-4.6,30.06,West,278,2.2,2.7,17,0.00,,---,0.00,VWS V14.01,2013-02-06 22:47:00,
2013-02-06 17:50:00,35.8,-4.8,30.09,West,263,4.0,5.8,17,0.00,,---,0.00,VWS V14.01,2013-02-06 22:50:00,
2013-02-06 17:51:00,35.8,-4.8,30.09,West,263,2.7,2.7,17,0.00,,---,0.00,VWS V14.01,2013-02-06 22:51:00,
2013-02-06 17:52:00,35.8,-4.8,30.09,West,259,3.1,3.1,17,0.00,,---,0.00,VWS V14.01,2013-02-06 22:52:00,
2013-02-06 17:55:00,35.8,-4.8,30.09,WSW,246,3.1,3.6,17,0.00,,---,0.00,VWS V14.01,2013-02-06 22:55:00,
2013-02-06 17:56:00,35.8,-4.8,30.09,West,261,2.7,5.4,17,0.00,,---,0.00,VWS V14.01,2013-02-06 22:56:00,
2013-02-06 17:57:00,35.8,-4.8,30.09,West,266,5.8,5.8,17,0.00,,---,0.00,VWS V14.01,2013-02-06 22:57:00,
2013-02-06 18:00:00,35.8,-4.8,30.09,WSW,243,4.0,4.9,17,0.00,,---,0.00,VWS V14.01,2013-02-06 23:00:00,
2013-02-06 18:01:00,35.8,-4.8,30.09,WSW,253,3.1,5.4,17,0.00,,---,0.00,VWS V14.01,2013-02-06 23:01:00,
2013-02-06 18:03:00,35.8,-4.8,30.09,NW,316,2.7,3.6,17,0.00,,---,0.00,VWS V14.01,2013-02-06 23:03:00,
2013-02-06 18:05:00,35.8,-4.8,30.09,WSW,247,3.1,4.5,17,0.00,,---,0.00,VWS V14.01,2013-02-06 23:05:00,
2013-02-06 18:06:00,35.8,-4.8,30.09,WSW,254,2.7,3.1,17,0.00,,---,0.00,VWS V14.01,2013-02-06 23:06:00,
2013-02-06 18:08:00,35.8,-4.8,30.09,West,265,5.8,5.8,17,0.00,,---,0.00,VWS V14.01,2013-02-06 23:08:00,
2013-02-06 18:10:00,35.8,-4.8,30.09,WSW,238,3.1,3.1,17,0.00,,---,0.00,VWS V14.01,2013-02-06 23:10:00,
2013-02-06 18:11:00,35.8,-4.8,30.09,WSW,238,2.2,3.1,17,0.00,,---,0.00,VWS V14.01,2013-02-06 23:11:00,
2013-02-06 18:13:00,35.8,-4.8,30.09,West,265,2.7,4.0,17,0.00,,---,0.00,VWS V14.01,2013-02-06 23:13:00,
2013-02-06 18:16:00,35.6,-4.9,30.09,NW,311,3.1,5.4,17,0.00,,---,0.00,VWS V14.01,2013-02-06 23:16:00,
2013-02-06 18:18:00,35.6,-4.9,30.09,West,264,3.6,3.6,17,0.00,,---,0.00,VWS V14.01,2013-02-06 23:18:00,
2013-02-06 18:21:00,35.6,-4.9,30.09,West,273,2.7,3.6,17,0.00,,---,0.00,VWS V14.01,2013-02-06 23:21:00,
2013-02-06 18:22:00,35.6,-4.9,30.09,WNW,300,2.7,3.1,17,0.00,,---,0.00,VWS V14.01,2013-02-06 23:22:00,
2013-02-06 18:23:00,35.4,-5.1,30.09,NW,308,2.7,3.6,17,0.00,,---,0.00,VWS V14.01,2013-02-06 23:23:00,
2013-02-06 18:26:00,35.4,-5.1,30.09,West,260,2.7,2.7,17,0.00,,---,0.00,VWS V14.01,2013-02-06 23:26:00,
2013-02-06 18:27:00,35.4,-5.1,30.09,West,263,4.9,4.9,17,0.00,,---,0.00,VWS V14.01,2013-02-06 23:27:00,
2013-02-06 18:28:00,35.2,-5.2,30.09,WSW,245,2.7,3.1,17,0.00,,---,0.00,VWS V14.01,2013-02-06 23:28:00,
2013-02-06 18:31:00,35.2,-5.2,30.09,West,268,2.7,2.7,17,0.00,,---,0.00,VWS V14.01,2013-02-06 23:31:00,
2013-02-06 18:32:00,35.2,-5.2,30.09,WSW,247,2.7,2.7,17,0.00,,---,0.00,VWS V14.01,2013-02-06 23:32:00,
2013-02-06 18:33:00,35.1,-5.3,30.09,NW,312,3.1,4.0,17,0.00,,---,0.00,VWS V14.01,2013-02-06 23:33:00,
2013-02-06 18:36:00,34.9,-5.5,30.09,West,271,3.1,3.1,17,0.00,,---,0.00,VWS V14.01,2013-02-06 23:36:00,
2013-02-06 18:37:00,34.7,-5.6,30.09,WSW,257,3.1,3.1,17,0.00,,---,0.00,VWS V14.01,2013-02-06 23:37:00,
2013-02-06 18:38:00,34.7,-5.6,30.09,WSW,257,2.7,3.1,17,0.00,,---,0.00,VWS V14.01,2013-02-06 23:38:00,
2013-02-06 18:41:00,34.5,-5.8,30.09,West,274,4.9,4.9,17,0.00,,---,0.00,VWS V14.01,2013-02-06 23:41:00,
2013-02-06 18:42:00,34.5,-5.8,30.09,WNW,282,0.0,4.9,17,0.00,,---,0.00,VWS V14.01,2013-02-06 23:42:00,
2013-02-06 18:43:00,34.5,-5.8,30.09,WNW,282,2.7,2.7,17,0.00,,---,0.00,VWS V14.01,2013-02-06 23:43:00,
2013-02-06 18:46:00,34.5,-5.8,30.09,West,279,3.1,3.1,17,0.00,,---,0.00,VWS V14.01,2013-02-06 23:46:00,
2013-02-06 18:47:00,34.5,-5.8,30.09,WNW,283,2.7,4.0,17,0.00,,---,0.00,VWS V14.01,2013-02-06 23:47:00,
2013-02-06 18:48:00,34.3,-5.9,30.09,WNW,283,0.0,2.7,17,0.00,,---,0.00,VWS V14.01,2013-02-06 23:48:00,
2013-02-06 18:51:00,34.2,-6.1,30.12,WNW,283,0.0,0.0,17,0.00,,---,0.00,VWS V14.01,2013-02-06 23:51:00,
2013-02-06 18:52:00,34.2,-6.1,30.12,WNW,283,0.0,0.0,17,0.00,,---,0.00,VWS V14.01,2013-02-06 23:52:00,
2013-02-06 18:53:00,34.2,-6.1,30.12,WNW,283,0.0,0.0,17,0.00,,---,0.00,VWS V14.01,2013-02-06 23:53:00,
2013-02-06 18:56:00,33.8,-6.4,30.12,WNW,283,3.1,3.1,17,0.00,,---,0.00,VWS V14.01,2013-02-06 23:56:00,
2013-02-06 18:57:00,33.6,-5.3,30.12,WNW,283,0.0,3.1,18,0.00,,---,0.00,VWS V14.01,2013-02-06 23:57:00,
2013-02-06 18:59:00,33.6,-5.3,30.12,WNW,283,0.0,0.0,18,0.00,,---,0.00,VWS V14.01,2013-02-06 23:59:00,
2013-02-06 19:02:00,33.3,-5.7,30.12,WNW,283,0.0,0.0,18,0.00,,---,0.00,VWS V14.01,2013-02-07 00:02:00,
2013-02-06 19:03:00,33.3,-5.7,30.12,WNW,283,0.0,0.0,18,0.00,,---,0.00,VWS V14.01,2013-02-07 00:03:00,
2013-02-06 19:04:00,33.1,-5.8,30.12,WNW,283,0.0,0.0,18,0.00,,---,0.00,VWS V14.01,2013-02-07 00:04:00,
2013-02-06 19:07:00,32.9,-5.9,30.12,WNW,283,0.0,0.0,18,0.00,,---,0.00,VWS V14.01,2013-02-07 00:07:00,
2013-02-06 19:08:00,32.9,-5.9,30.12,WNW,283,0.0,0.0,18,0.00,,---,0.00,VWS V14.01,2013-02-07 00:08:00,
2013-02-06 19:09:00,32.7,-6.1,30.12,WNW,283,0.0,0.0,18,0.00,,---,0.00,VWS V14.01,2013-02-07 00:09:00,
2013-02-06 19:12:00,32.5,-6.2,30.12,WNW,283,0.0,0.0,18,0.00,,---,0.00,VWS V14.01,2013-02-07 00:12:00,
2013-02-06 19:13:00,32.5,-6.2,30.12,WNW,283,0.0,0.0,18,0.00,,---,0.00,VWS V14.01,2013-02-07 00:13:00,
2013-02-06 19:14:00,32.4,-6.4,30.12,WNW,283,0.0,0.0,18,0.00,,---,0.00,VWS V14.01,2013-02-07 00:14:00,
2013-02-06 19:17:00,32.2,-6.6,30.12,WNW,283,0.0,0.0,18,0.00,,---,0.00,VWS V14.01,2013-02-07 00:17:00,
2013-02-06 19:18:00,32.2,-6.6,30.12,WNW,283,0.0,0.0,18,0.00,,---,0.00,VWS V14.01,2013-02-07 00:18:00,
2013-02-06 19:19:00,32.2,-6.6,30.12,WNW,283,0.0,0.0,18,0.00,,---,0.00,VWS V14.01,2013-02-07 00:19:00,
2013-02-06 19:22:00,32.2,-6.6,30.12,WNW,283,0.0,0.0,18,0.00,,---,0.00,VWS V14.01,2013-02-07 00:22:00,
2013-02-06 19:23:00,32.2,-6.6,30.12,WNW,283,0.0,0.0,18,0.00,,---,0.00,VWS V14.01,2013-02-07 00:23:00,
2013-02-06 19:24:00,32.0,-6.7,30.12,WNW,283,0.0,0.0,18,0.00,,---,0.00,VWS V14.01,2013-02-07 00:24:00,
2013-02-06 19:27:00,31.8,-6.8,30.12,WNW,283,0.0,0.0,18,0.00,,---,0.00,VWS V14.01,2013-02-07 00:27:00,
2013-02-06 19:28:00,31.8,-6.8,30.12,WNW,283,0.0,0.0,18,0.00,,---,0.00,VWS V14.01,2013-02-07 00:28:00,
2013-02-06 19:29:00,31.6,-7.0,30.12,WNW,283,0.0,0.0,18,0.00,,---,0.00,VWS V14.01,2013-02-07 00:29:00,
2013-02-06 19:32:00,31.5,-7.2,30.12,WNW,283,0.0,0.0,18,0.00,,---,0.00,VWS V14.01,2013-02-07 00:32:00,
2013-02-06 19:33:00,31.3,-7.3,30.12,WNW,283,0.0,0.0,18,0.00,,---,0.00,VWS V14.01,2013-02-07 00:33:00,
2013-02-06 19:34:00,31.3,-7.3,30.12,WNW,283,0.0,0.0,18,0.00,,---,0.00,VWS V14.01,2013-02-07 00:34:00,
2013-02-06 19:37:00,31.1,-7.4,30.12,WNW,283,0.0,0.0,18,0.00,,---,0.00,VWS V14.01,2013-02-07 00:37:00,
2013-02-06 19:38:00,30.9,-7.6,30.12,WNW,283,0.0,0.0,18,0.00,,---,0.00,VWS V14.01,2013-02-07 00:38:00,
2013-02-06 19:39:00,30.7,-7.7,30.12,WNW,283,0.0,0.0,18,0.00,,---,0.00,VWS V14.01,2013-02-07 00:39:00,
2013-02-06 19:42:00,30.6,-7.9,30.12,WNW,283,0.0,0.0,18,0.00,,---,0.00,VWS V14.01,2013-02-07 00:42:00,
2013-02-06 19:43:00,30.6,-7.9,30.12,WNW,283,0.0,0.0,18,0.00,,---,0.00,VWS V14.01,2013-02-07 00:43:00,
2013-02-06 19:44:00,30.6,-7.9,30.12,WNW,283,0.0,0.0,18,0.00,,---,0.00,VWS V14.01,2013-02-07 00:44:00,
2013-02-06 19:47:00,30.4,-8.0,30.12,WNW,283,0.0,0.0,18,0.00,,---,0.00,VWS V14.01,2013-02-07 00:47:00,
2013-02-06 19:48:00,30.4,-8.0,30.12,WNW,283,0.0,0.0,18,0.00,,---,0.00,VWS V14.01,2013-02-07 00:48:00,
2013-02-06 19:49:00,30.4,-8.0,30.12,WNW,283,0.0,0.0,18,0.00,,---,0.00,VWS V14.01,2013-02-07 00:49:00,
2013-02-06 19:52:00,30.2,-8.2,30.15,WNW,283,0.0,0.0,18,0.00,,---,0.00,VWS V14.01,2013-02-07 00:52:00,
2013-02-06 19:53:00,30.2,-8.2,30.15,WNW,283,0.0,0.0,18,0.00,,---,0.00,VWS V14.01,2013-02-07 00:53:00,
2013-02-06 19:54:00,30.2,-8.2,30.15,WNW,283,0.0,0.0,18,0.00,,---,0.00,VWS V14.01,2013-02-07 00:54:00,
2013-02-06 19:58:00,29.8,-6.3,30.15,WNW,283,0.0,0.0,20,0.00,,---,0.00,VWS V14.01,2013-02-07 00:58:00,
2013-02-06 19:59:00,29.7,-6.5,30.15,WNW,283,0.0,0.0,20,0.00,,---,0.00,VWS V14.01,2013-02-07 00:59:00,
2013-02-06 20:03:00,29.3,-6.8,30.15,WNW,283,0.0,0.0,20,0.00,,---,0.00,VWS V14.01,2013-02-07 01:03:00,
2013-02-06 20:04:00,29.3,-6.8,30.15,WNW,283,0.0,0.0,20,0.00,,---,0.00,VWS V14.01,2013-02-07 01:04:00,
2013-02-06 20:05:00,29.3,-6.8,30.15,WNW,283,0.0,0.0,20,0.00,,---,0.00,VWS V14.01,2013-02-07 01:05:00,
2013-02-06 20:08:00,29.3,-6.8,30.15,WNW,283,0.0,0.0,20,0.00,,---,0.00,VWS V14.01,2013-02-07 01:08:00,
2013-02-06 20:09:00,29.3,-3.9,30.15,WNW,283,0.0,0.0,23,0.00,,---,0.00,VWS V14.01,2013-02-07 01:09:00,
2013-02-06 20:10:00,29.3,-3.9,30.15,WNW,283,0.0,0.0,23,0.00,,---,0.00,VWS V14.01,2013-02-07 01:10:00,
2013-02-06 20:13:00,29.3,-3.9,30.15,WNW,283,0.0,0.0,23,0.00,,---,0.00,VWS V14.01,2013-02-07 01:13:00,
2013-02-06 20:14:00,29.3,-3.9,30.15,WNW,283,0.0,0.0,23,0.00,,---,0.00,VWS V14.01,2013-02-07 01:14:00,
2013-02-06 20:15:00,29.3,-3.9,30.15,WNW,283,0.0,0.0,23,0.00,,---,0.00,VWS V14.01,2013-02-07 01:15:00,
2013-02-06 20:18:00,29.1,-4.1,30.15,WNW,283,0.0,0.0,23,0.00,,---,0.00,VWS V14.01,2013-02-07 01:18:00,
2013-02-06 20:19:00,29.1,-4.1,30.15,WNW,283,0.0,0.0,23,0.00,,---,0.00,VWS V14.01,2013-02-07 01:19:00,
2013-02-06 20:20:00,29.1,-4.1,30.15,WNW,283,0.0,0.0,23,0.00,,---,0.00,VWS V14.01,2013-02-07 01:20:00,
2013-02-06 20:23:00,29.1,-4.1,30.15,WNW,283,0.0,0.0,23,0.00,,---,0.00,VWS V14.01,2013-02-07 01:23:00,
2013-02-06 20:24:00,28.9,-4.2,30.15,WNW,283,0.0,0.0,23,0.00,,---,0.00,VWS V14.01,2013-02-07 01:24:00,
2013-02-06 20:25:00,28.9,-4.2,30.15,WNW,283,0.0,0.0,23,0.00,,---,0.00,VWS V14.01,2013-02-07 01:25:00,
2013-02-06 20:28:00,28.8,-4.3,30.15,WNW,283,0.0,0.0,23,0.00,,---,0.00,VWS V14.01,2013-02-07 01:28:00,
2013-02-06 20:30:00,28.6,-4.5,30.15,WNW,283,0.0,0.0,23,0.00,,---,0.00,VWS V14.01,2013-02-07 01:30:00,
2013-02-06 20:33:00,28.6,-4.5,30.15,WNW,283,0.0,0.0,23,0.00,,---,0.00,VWS V14.01,2013-02-07 01:33:00,
2013-02-06 20:35:00,28.4,-4.7,30.15,WNW,283,0.0,0.0,23,0.00,,---,0.00,VWS V14.01,2013-02-07 01:35:00,
2013-02-06 20:38:00,28.4,-4.7,30.15,WNW,283,0.0,0.0,23,0.00,,---,0.00,VWS V14.01,2013-02-07 01:38:00,
2013-02-06 20:40:00,28.2,-4.8,30.15,WNW,283,0.0,0.0,23,0.00,,---,0.00,VWS V14.01,2013-02-07 01:40:00,
2013-02-06 20:44:00,28.2,-4.8,30.15,WNW,283,0.0,0.0,23,0.00,,---,0.00,VWS V14.01,2013-02-07 01:44:00,
2013-02-06 20:45:00,28.2,-4.8,30.15,WNW,283,0.0,0.0,23,0.00,,---,0.00,VWS V14.01,2013-02-07 01:45:00,
2013-02-06 20:49:00,28.2,-4.8,30.15,WNW,283,0.0,0.0,23,0.00,,---,0.00,VWS V14.01,2013-02-07 01:49:00,
2013-02-06 20:50:00,28.2,-2.2,30.15,WNW,283,0.0,0.0,26,0.00,,---,0.00,VWS V14.01,2013-02-07 01:50:00,
2013-02-06 20:51:00,28.2,-2.2,30.15,WNW,283,0.0,0.0,26,0.00,,---,0.00,VWS V14.01,2013-02-07 01:51:00,
2013-02-06 20:54:00,28.0,-2.4,30.15,WNW,283,0.0,0.0,26,0.00,,---,0.00,VWS V14.01,2013-02-07 01:54:00,
2013-02-06 20:55:00,27.9,-2.6,30.15,WNW,283,0.0,0.0,26,0.00,,---,0.00,VWS V14.01,2013-02-07 01:55:00,
2013-02-06 20:56:00,27.9,-2.6,30.15,WNW,283,0.0,0.0,26,0.00,,---,0.00,VWS V14.01,2013-02-07 01:56:00,
2013-02-06 20:59:00,27.7,-2.7,30.15,WNW,283,0.0,0.0,26,0.00,,---,0.00,VWS V14.01,2013-02-07 01:59:00,
2013-02-06 21:00:00,27.7,-2.7,30.15,WNW,283,0.0,0.0,26,0.00,,---,0.00,VWS V14.01,2013-02-07 02:00:00,
2013-02-06 21:01:00,27.7,-2.7,30.15,WNW,283,0.0,0.0,26,0.00,,---,0.00,VWS V14.01,2013-02-07 02:01:00,
2013-02-06 21:04:00,27.7,-2.7,30.15,WNW,283,0.0,0.0,26,0.00,,---,0.00,VWS V14.01,2013-02-07 02:04:00,
2013-02-06 21:05:00,27.7,-2.7,30.15,WNW,283,0.0,0.0,26,0.00,,---,0.00,VWS V14.01,2013-02-07 02:05:00,
2013-02-06 21:06:00,27.7,-2.7,30.15,WNW,283,0.0,0.0,26,0.00,,---,0.00,VWS V14.01,2013-02-07 02:06:00,
2013-02-06 21:09:00,27.5,-2.9,30.15,WNW,283,0.0,0.0,26,0.00,,---,0.00,VWS V14.01,2013-02-07 02:09:00,
2013-02-06 21:10:00,27.5,-2.9,30.15,WNW,283,0.0,0.0,26,0.00,,---,0.00,VWS V14.01,2013-02-07 02:10:00,
2013-02-06 21:11:00,27.5,-2.9,30.15,WNW,283,0.0,0.0,26,0.00,,---,0.00,VWS V14.01,2013-02-07 02:11:00,
2013-02-06 21:14:00,27.5,-2.9,30.15,WNW,283,0.0,0.0,26,0.00,,---,0.00,VWS V14.01,2013-02-07 02:14:00,
2013-02-06 21:15:00,27.3,-3.0,30.15,WNW,283,0.0,0.0,26,0.00,,---,0.00,VWS V14.01,2013-02-07 02:15:00,
2013-02-06 21:16:00,27.3,-3.0,30.15,WNW,283,0.0,0.0,26,0.00,,---,0.00,VWS V14.01,2013-02-07 02:16:00,
2013-02-06 21:19:00,27.3,-3.0,30.15,WNW,283,0.0,0.0,26,0.00,,---,0.00,VWS V14.01,2013-02-07 02:19:00,
2013-02-06 21:20:00,27.3,-3.0,30.18,WNW,283,0.0,0.0,26,0.00,,---,0.00,VWS V14.01,2013-02-07 02:20:00,
2013-02-06 21:21:00,27.3,-3.0,30.18,WNW,283,0.0,0.0,26,0.00,,---,0.00,VWS V14.01,2013-02-07 02:21:00,
2013-02-06 21:24:00,27.0,-1.8,30.18,WNW,283,0.0,0.0,28,0.00,,---,0.00,VWS V14.01,2013-02-07 02:24:00,
2013-02-06 21:25:00,27.0,-1.8,30.18,WNW,283,0.0,0.0,28,0.00,,---,0.00,VWS V14.01,2013-02-07 02:25:00,
2013-02-06 21:26:00,27.0,-1.8,30.18,WNW,283,0.0,0.0,28,0.00,,---,0.00,VWS V14.01,2013-02-07 02:26:00,
2013-02-06 21:30:00,27.0,-1.8,30.18,WNW,283,0.0,0.0,28,0.00,,---,0.00,VWS V14.01,2013-02-07 02:30:00,
2013-02-06 21:31:00,26.8,-1.9,30.18,WNW,283,0.0,0.0,28,0.00,,---,0.00,VWS V14.01,2013-02-07 02:31:00,
2013-02-06 21:35:00,26.6,-1.4,30.18,WNW,283,0.0,0.0,29,0.00,,---,0.00,VWS V14.01,2013-02-07 02:35:00,
2013-02-06 21:36:00,26.6,-1.4,30.18,WNW,283,0.0,0.0,29,0.00,,---,0.00,VWS V14.01,2013-02-07 02:36:00,
2013-02-06 21:37:00,26.6,0.1,30.18,WNW,283,0.0,0.0,31,0.00,,---,0.00,VWS V14.01,2013-02-07 02:37:00,
2013-02-06 21:40:00,26.6,0.1,30.18,WNW,283,0.0,0.0,31,0.00,,---,0.00,VWS V14.01,2013-02-07 02:40:00,
2013-02-06 21:41:00,26.6,0.1,30.18,WNW,283,0.0,0.0,31,0.00,,---,0.00,VWS V14.01,2013-02-07 02:41:00,
2013-02-06 21:42:00,26.6,0.1,30.18,WNW,283,0.0,0.0,31,0.00,,---,0.00,VWS V14.01,2013-02-07 02:42:00,
2013-02-06 21:45:00,26.8,0.2,30.18,WNW,283,0.0,0.0,31,0.00,,---,0.00,VWS V14.01,2013-02-07 02:45:00,
2013-02-06 21:46:00,26.8,0.2,30.18,WNW,283,0.0,0.0,31,0.00,,---,0.00,VWS V14.01,2013-02-07 02:46:00,
2013-02-06 21:47:00,26.8,0.2,30.18,WNW,283,0.0,0.0,31,0.00,,---,0.00,VWS V14.01,2013-02-07 02:47:00,
2013-02-06 21:50:00,26.6,0.1,30.18,WNW,283,0.0,0.0,31,0.00,,---,0.00,VWS V14.01,2013-02-07 02:50:00,
2013-02-06 21:51:00,26.6,0.1,30.18,WNW,283,0.0,0.0,31,0.00,,---,0.00,VWS V14.01,2013-02-07 02:51:00,
2013-02-06 21:52:00,26.4,-0.1,30.18,WNW,283,0.0,0.0,31,0.00,,---,0.00,VWS V14.01,2013-02-07 02:52:00,
2013-02-06 21:55:00,26.2,-0.3,30.18,WNW,283,0.0,0.0,31,0.00,,---,0.00,VWS V14.01,2013-02-07 02:55:00,
2013-02-06 21:56:00,26.1,-0.4,30.18,WNW,283,0.0,0.0,31,0.00,,---,0.00,VWS V14.01,2013-02-07 02:56:00,
2013-02-06 21:57:00,26.1,-0.4,30.18,WNW,283,0.0,0.0,31,0.00,,---,0.00,VWS V14.01,2013-02-07 02:57:00,
2013-02-06 22:00:00,26.1,-0.4,30.18,WNW,283,0.0,0.0,31,0.00,,---,0.00,VWS V14.01,2013-02-07 03:00:00,
2013-02-06 22:01:00,25.9,-0.6,30.18,WNW,283,0.0,0.0,31,0.00,,---,0.00,VWS V14.01,2013-02-07 03:01:00,
2013-02-06 22:02:00,25.9,-0.6,30.18,WNW,283,0.0,0.0,31,0.00,,---,0.00,VWS V14.01,2013-02-07 03:02:00,
2013-02-06 22:05:00,25.9,0.1,30.18,WNW,283,0.0,0.0,32,0.00,,---,0.00,VWS V14.01,2013-02-07 03:05:00,
2013-02-06 22:06:00,25.9,0.1,30.18,WNW,283,0.0,0.0,32,0.00,,---,0.00,VWS V14.01,2013-02-07 03:06:00,
2013-02-06 22:07:00,25.9,0.1,30.18,WNW,283,0.0,0.0,32,0.00,,---,0.00,VWS V14.01,2013-02-07 03:07:00,
2013-02-06 22:11:00,25.7,-0.1,30.18,WNW,283,0.0,0.0,32,0.00,,---,0.00,VWS V14.01,2013-02-07 03:11:00,
2013-02-06 22:12:00,25.5,-0.2,30.18,WNW,283,0.0,0.0,32,0.00,,---,0.00,VWS V14.01,2013-02-07 03:12:00,
2013-02-06 22:16:00,25.3,-0.4,30.18,WNW,283,0.0,0.0,32,0.00,,---,0.00,VWS V14.01,2013-02-07 03:16:00,
2013-02-06 22:17:00,25.2,-0.5,30.18,WNW,283,0.0,0.0,32,0.00,,---,0.00,VWS V14.01,2013-02-07 03:17:00,
2013-02-06 22:21:00,25.2,-0.5,30.18,WNW,283,0.0,0.0,32,0.00,,---,0.00,VWS V14.01,2013-02-07 03:21:00,
2013-02-06 22:23:00,25.2,-0.5,30.18,WNW,283,0.0,0.0,32,0.00,,---,0.00,VWS V14.01,2013-02-07 03:23:00,
2013-02-06 22:26:00,25.2,-0.5,30.18,WNW,283,0.0,0.0,32,0.00,,---,0.00,VWS V14.01,2013-02-07 03:26:00,
2013-02-06 22:28:00,25.2,-0.5,30.18,WNW,283,0.0,0.0,32,0.00,,---,0.00,VWS V14.01,2013-02-07 03:28:00,
2013-02-06 22:31:00,25.3,-0.4,30.18,WNW,283,0.0,0.0,32,0.00,,---,0.00,VWS V14.01,2013-02-07 03:31:00,
2013-02-06 22:33:00,25.3,-0.4,30.18,WNW,283,0.0,0.0,32,0.00,,---,0.00,VWS V14.01,2013-02-07 03:33:00,
2013-02-06 22:36:00,25.3,-0.4,30.18,WNW,283,0.0,0.0,32,0.00,,---,0.00,VWS V14.01,2013-02-07 03:36:00,
2013-02-06 22:37:00,25.3,-0.4,30.18,WNW,283,0.0,0.0,32,0.00,,---,0.00,VWS V14.01,2013-02-07 03:37:00,
2013-02-06 22:38:00,25.2,0.1,30.18,WNW,283,0.0,0.0,33,0.00,,---,0.00,VWS V14.01,2013-02-07 03:38:00,
2013-02-06 22:41:00,25.0,-0.1,30.18,WNW,283,0.0,0.0,33,0.00,,---,0.00,VWS V14.01,2013-02-07 03:41:00,
2013-02-06 22:42:00,24.8,-0.2,30.18,WNW,283,0.0,0.0,33,0.00,,---,0.00,VWS V14.01,2013-02-07 03:42:00,
2013-02-06 22:43:00,24.8,-0.2,30.18,WNW,283,0.0,0.0,33,0.00,,---,0.00,VWS V14.01,2013-02-07 03:43:00,
2013-02-06 22:46:00,24.6,-0.4,30.18,WNW,283,0.0,0.0,33,0.00,,---,0.00,VWS V14.01,2013-02-07 03:46:00,
2013-02-06 22:47:00,24.6,-0.4,30.18,WNW,283,0.0,0.0,33,0.00,,---,0.00,VWS V14.01,2013-02-07 03:47:00,
2013-02-06 22:48:00,24.6,-0.4,30.18,WNW,283,0.0,0.0,33,0.00,,---,0.00,VWS V14.01,2013-02-07 03:48:00,
2013-02-06 22:51:00,24.6,-0.4,30.21,WNW,283,0.0,0.0,33,0.00,,---,0.00,VWS V14.01,2013-02-07 03:51:00,
2013-02-06 22:52:00,24.6,-0.4,30.21,WNW,283,0.0,0.0,33,0.00,,---,0.00,VWS V14.01,2013-02-07 03:52:00,
2013-02-06 22:53:00,24.4,-0.5,30.21,WNW,283,0.0,0.0,33,0.00,,---,0.00,VWS V14.01,2013-02-07 03:53:00,
2013-02-06 22:57:00,24.4,0.7,30.21,WNW,283,0.0,0.0,35,0.00,,---,0.00,VWS V14.01,2013-02-07 03:57:00,
2013-02-06 22:58:00,24.4,0.7,30.21,WNW,283,0.0,0.0,35,0.00,,---,0.00,VWS V14.01,2013-02-07 03:58:00,
2013-02-06 23:02:00,24.4,0.7,30.21,WNW,283,0.0,0.0,35,0.00,,---,0.00,VWS V14.01,2013-02-07 04:02:00,
2013-02-06 23:03:00,24.4,0.7,30.21,WNW,283,0.0,0.0,35,0.00,,---,0.00,VWS V14.01,2013-02-07 04:03:00,
2013-02-06 23:07:00,24.4,0.7,30.21,WNW,283,0.0,0.0,35,0.00,,---,0.00,VWS V14.01,2013-02-07 04:07:00,
2013-02-06 23:08:00,24.4,0.7,30.21,WNW,283,0.0,0.0,35,0.00,,---,0.00,VWS V14.01,2013-02-07 04:08:00,
2013-02-06 23:09:00,24.6,0.9,30.21,WNW,283,0.0,0.0,35,0.00,,---,0.00,VWS V14.01,2013-02-07 04:09:00,
2013-02-06 23:12:00,24.4,0.7,30.21,WNW,283,0.0,0.0,35,0.00,,---,0.00,VWS V14.01,2013-02-07 04:12:00,
2013-02-06 23:13:00,24.4,0.7,30.21,WNW,283,0.0,0.0,35,0.00,,---,0.00,VWS V14.01,2013-02-07 04:13:00,
2013-02-06 23:14:00,24.4,0.7,30.21,WNW,283,0.0,0.0,35,0.00,,---,0.00,VWS V14.01,2013-02-07 04:14:00,
2013-02-06 23:17:00,24.4,1.3,30.21,WNW,283,0.0,0.0,36,0.00,,---,0.00,VWS V14.01,2013-02-07 04:17:00,
2013-02-06 23:18:00,24.4,1.3,30.21,WNW,283,0.0,0.0,36,0.00,,---,0.00,VWS V14.01,2013-02-07 04:18:00,
2013-02-06 23:19:00,24.4,1.3,30.21,WNW,283,0.0,0.0,36,0.00,,---,0.00,VWS V14.01,2013-02-07 04:19:00,
2013-02-06 23:22:00,24.1,2.7,30.21,WNW,283,0.0,0.0,39,0.00,,---,0.00,VWS V14.01,2013-02-07 04:22:00,
2013-02-06 23:23:00,24.1,3.8,30.21,WNW,283,0.0,0.0,41,0.00,,---,0.00,VWS V14.01,2013-02-07 04:23:00,
2013-02-06 23:24:00,24.1,3.8,30.21,WNW,283,0.0,0.0,41,0.00,,---,0.00,VWS V14.01,2013-02-07 04:24:00,
2013-02-06 23:27:00,23.9,4.2,30.21,WNW,283,0.0,0.0,42,0.00,,---,0.00,VWS V14.01,2013-02-07 04:27:00,
2013-02-06 23:29:00,23.9,3.6,30.21,WNW,283,0.0,0.0,41,0.00,,---,0.00,VWS V14.01,2013-02-07 04:29:00,
2013-02-06 23:32:00,23.7,2.9,30.21,WNW,283,0.0,0.0,40,0.00,,---,0.00,VWS V14.01,2013-02-07 04:32:00,
2013-02-06 23:33:00,23.7,2.9,30.21,WNW,283,0.0,0.0,40,0.00,,---,0.00,VWS V14.01,2013-02-07 04:33:00,
2013-02-06 23:34:00,23.7,2.9,30.21,WNW,283,0.0,0.0,40,0.00,,---,0.00,VWS V14.01,2013-02-07 04:34:00,
2013-02-06 23:37:00,23.9,3.1,30.21,WNW,283,0.0,0.0,40,0.00,,---,0.00,VWS V14.01,2013-02-07 04:37:00,
2013-02-06 23:39:00,23.9,3.1,30.21,WNW,283,0.0,0.0,40,0.00,,---,0.00,VWS V14.01,2013-02-07 04:39:00,
2013-02-06 23:42:00,23.5,1.7,30.21,WNW,283,0.0,0.0,38,0.00,,---,0.00,VWS V14.01,2013-02-07 04:42:00,
2013-02-06 23:43:00,23.5,1.7,30.21,WNW,283,0.0,0.0,38,0.00,,---,0.00,VWS V14.01,2013-02-07 04:43:00,
2013-02-06 23:44:00,23.5,1.7,30.21,WNW,283,0.0,0.0,38,0.00,,---,0.00,VWS V14.01,2013-02-07 04:44:00,
2013-02-06 23:48:00,23.5,2.2,30.21,WNW,283,0.0,0.0,39,0.00,,---,0.00,VWS V14.01,2013-02-07 04:48:00,
2013-02-06 23:49:00,23.5,2.2,30.21,WNW,283,0.0,0.0,39,0.00,,---,0.00,VWS V14.01,2013-02-07 04:49:00,
2013-02-06 23:53:00,23.5,2.2,30.21,WNW,283,0.0,0.0,39,0.00,,---,0.00,VWS V14.01,2013-02-07 04:53:00,
2013-02-06 23:54:00,23.5,2.2,30.21,WNW,283,0.0,0.0,39,0.00,,---,0.00,VWS V14.01,2013-02-07 04:54:00,
2013-02-06 23:58:00,23.2,1.9,30.21,WNW,283,0.0,0.0,39,0.00,,---,0.00,VWS V14.01,2013-02-07 04:58:00,
2013-02-06 23:59:00,23.2,1.9,30.21,WNW,283,0.0,0.0,39,0.00,,---,0.00,VWS V14.01,2013-02-07 04:59:00,